| time (UTC) | temp F | wind direction | speed MPH | gust MPH | rain 1hr in | rain 24hr in | rain mn in | humidity % | barometer mb |
| 20260507140000 | 53 | 237 | 0.0 | 4.0 | 0.00 | 0.40 | 0.20 | 80 | 1018.4 |
| 20260507135859 | 52 | 241 | 1.0 | 6.0 | 0.00 | 0.40 | 0.20 | 79 | 1018.4 |
| 20260507135758 | 52 | 244 | 1.0 | 6.0 | 0.00 | 0.40 | 0.20 | 80 | 1018.8 |
| 20260507135658 | 52 | 246 | 0.0 | 6.0 | 0.00 | 0.40 | 0.20 | 80 | 1018.4 |
| 20260507135258 | 52 | 250 | 1.0 | 6.0 | 0.00 | 0.40 | 0.20 | 80 | 1018.4 |
| 20260507135158 | 52 | 254 | 2.0 | 9.0 | 0.00 | 0.40 | 0.20 | 80 | 1018.5 |
| 20260507135058 | 52 | 253 | 1.0 | 9.0 | 0.00 | 0.40 | 0.20 | 80 | 1018.2 |
| 20260507134758 | 53 | 258 | 2.0 | 9.0 | 0.00 | 0.40 | 0.20 | 80 | 1018.4 |
| 20260507134658 | 53 | 253 | 0.0 | 9.0 | 0.00 | 0.40 | 0.20 | 81 | 1018.6 |
| 20260507134558 | 53 | 253 | 0.0 | 9.0 | 0.00 | 0.40 | 0.20 | 81 | 1018.4 |
| 20260507134358 | 53 | 250 | 0.0 | 9.0 | 0.00 | 0.40 | 0.20 | 81 | 1018.3 |
| 20260507134258 | 53 | 246 | 4.0 | 9.0 | 0.00 | 0.41 | 0.20 | 80 | 1018.3 |
| 20260507134158 | 53 | 232 | 0.0 | 6.0 | 0.00 | 0.41 | 0.20 | 80 | 1018.6 |
| 20260507134059 | 53 | 224 | 1.0 | 6.0 | 0.00 | 0.41 | 0.20 | 80 | 1018.4 |
| 20260507133858 | 53 | 218 | 2.0 | 6.0 | 0.00 | 0.41 | 0.20 | 80 | 1018.6 |
| 20260507133758 | 53 | 217 | 1.0 | 6.0 | 0.00 | 0.41 | 0.20 | 81 | 1018.4 |
| 20260507133458 | 54 | 211 | 1.0 | 6.0 | 0.00 | 0.41 | 0.20 | 80 | 1018.3 |
| 20260507133258 | 54 | 206 | 2.0 | 6.0 | 0.00 | 0.41 | 0.20 | 79 | 1018.2 |
| 20260507133159 | 54 | 208 | 2.0 | 6.0 | 0.00 | 0.41 | 0.20 | 79 | 1018.3 |
| 20260507133058 | 54 | 214 | 4.0 | 6.0 | 0.00 | 0.41 | 0.20 | 78 | 1018.2 |
| 20260507133000 | 54 | 219 | 2.0 | 6.0 | 0.00 | 0.41 | 0.20 | 79 | 1018.1 |
| 20260507132858 | 54 | 217 | 1.0 | 6.0 | 0.00 | 0.41 | 0.20 | 79 | 1018.1 |
| 20260507132758 | 54 | 215 | 1.0 | 6.0 | 0.00 | 0.41 | 0.20 | 79 | 1018.1 |
| 20260507132658 | 54 | 208 | 2.0 | 4.0 | 0.00 | 0.41 | 0.20 | 78 | 1018.3 |
| 20260507132558 | 54 | 209 | 2.0 | 4.0 | 0.00 | 0.41 | 0.20 | 78 | 1018.1 |
| 20260507132459 | 54 | 212 | 2.0 | 4.0 | 0.00 | 0.41 | 0.20 | 78 | 1018.5 |
| 20260507132358 | 54 | 215 | 2.0 | 4.0 | 0.00 | 0.41 | 0.20 | 78 | 1018.2 |
| 20260507132258 | 54 | 221 | 1.0 | 7.0 | 0.00 | 0.41 | 0.20 | 78 | 1018.2 |
| 20260507132158 | 54 | 218 | 1.0 | 7.0 | 0.00 | 0.41 | 0.20 | 78 | 1018.3 |
| 20260507132058 | 54 | 213 | 0.0 | 7.0 | 0.00 | 0.41 | 0.20 | 78 | 1018.3 |
| 20260507131959 | 54 | 213 | 0.0 | 7.0 | 0.00 | 0.41 | 0.20 | 78 | 1018.3 |
| 20260507131858 | 54 | 220 | 2.0 | 7.0 | 0.00 | 0.41 | 0.20 | 78 | 1018.3 |
| 20260507131758 | 54 | 220 | 3.0 | 7.0 | 0.00 | 0.43 | 0.20 | 78 | 1018.3 |
| 20260507131658 | 54 | 224 | 0.0 | 7.0 | 0.00 | 0.44 | 0.20 | 79 | 1018.2 |
| 20260507131559 | 54 | 226 | 0.0 | 7.0 | 0.00 | 0.44 | 0.20 | 79 | 1018.4 |
| 20260507131500 | 54 | 227 | 1.0 | 7.0 | 0.00 | 0.44 | 0.20 | 79 | 1018.4 |
| 20260507131358 | 53 | 228 | 2.0 | 7.0 | 0.00 | 0.45 | 0.20 | 80 | 1018.2 |
| 20260507131258 | 53 | 228 | 2.0 | 7.0 | 0.00 | 0.45 | 0.20 | 80 | 1018.3 |
| 20260507131158 | 53 | 231 | 3.0 | 6.0 | 0.00 | 0.46 | 0.20 | 80 | 1018.3 |
| 20260507130858 | 53 | 228 | 3.0 | 7.0 | 0.00 | 0.46 | 0.20 | 80 | 1018.1 |
| 20260507130758 | 53 | 224 | 2.0 | 7.0 | 0.00 | 0.46 | 0.20 | 80 | 1018.3 |
| 20260507130659 | 54 | 223 | 2.0 | 7.0 | 0.00 | 0.46 | 0.20 | 80 | 1018.4 |
| 20260507130558 | 54 | 221 | 1.0 | 7.0 | 0.00 | 0.47 | 0.20 | 80 | 1018.2 |
| 20260507130458 | 54 | 220 | 2.0 | 7.0 | 0.00 | 0.47 | 0.20 | 80 | 1018.4 |
| 20260507130358 | 53 | 218 | 4.0 | 7.0 | 0.00 | 0.47 | 0.20 | 80 | 1018.3 |
| 20260507130259 | 53 | 216 | 4.0 | 7.0 | 0.00 | 0.47 | 0.20 | 80 | 1018.2 |
| 20260507130158 | 53 | 216 | 2.0 | 7.0 | 0.00 | 0.47 | 0.20 | 79 | 1018.4 |
| 20260507130058 | 54 | 215 | 4.0 | 7.0 | 0.00 | 0.47 | 0.20 | 79 | 1018.3 |
| 20260507130000 | 54 | 218 | 1.0 | 7.0 | 0.00 | 0.47 | 0.20 | 79 | 1018.4 |
| 20260507125858 | 54 | 220 | 4.0 | 7.0 | 0.00 | 0.47 | 0.20 | 79 | 1018.2 |
| 20260507125758 | 55 | 222 | 0.0 | 6.0 | 0.00 | 0.47 | 0.20 | 79 | 1018.2 |
| 20260507125658 | 54 | 221 | 0.0 | 6.0 | 0.00 | 0.47 | 0.20 | 78 | 1017.9 |
| 20260507125559 | 55 | 216 | 0.0 | 6.0 | 0.00 | 0.47 | 0.20 | 79 | 1018.1 |
| 20260507125358 | 54 | 222 | 0.0 | 6.0 | 0.00 | 0.47 | 0.20 | 78 | 1018.2 |
| 20260507125258 | 54 | 227 | 1.0 | 6.0 | 0.00 | 0.48 | 0.20 | 78 | 1018.2 |
| 20260507125159 | 53 | 228 | 1.0 | 6.0 | 0.00 | 0.48 | 0.20 | 77 | 1018.2 |
| 20260507125058 | 54 | 227 | 2.0 | 6.0 | 0.00 | 0.48 | 0.20 | 78 | 1018.1 |
| 20260507124959 | 54 | 226 | 1.0 | 6.0 | 0.00 | 0.48 | 0.20 | 77 | 1018.1 |
| 20260507124858 | 54 | 230 | 1.0 | 6.0 | 0.00 | 0.48 | 0.20 | 77 | 1018.0 |
| 20260507124758 | 54 | 233 | 2.0 | 6.0 | 0.00 | 0.48 | 0.20 | 77 | 1018.0 |
| 20260507124558 | 54 | 243 | 0.0 | 6.0 | 0.00 | 0.48 | 0.20 | 78 | 1018.1 |
| 20260507124500 | 54 | 243 | 3.0 | 6.0 | 0.00 | 0.48 | 0.20 | 77 | 1018.1 |
| 20260507124358 | 54 | 238 | 3.0 | 6.0 | 0.00 | 0.48 | 0.20 | 77 | 1018.1 |
| 20260507124258 | 54 | 234 | 3.0 | 6.0 | 0.00 | 0.48 | 0.20 | 77 | 1018.2 |
| 20260507124158 | 55 | 237 | 0.0 | 4.0 | 0.00 | 0.48 | 0.20 | 80 | 1018.1 |
| 20260507124058 | 55 | 245 | 0.0 | 4.0 | 0.00 | 0.48 | 0.20 | 79 | 1018.2 |
| 20260507123958 | 55 | 249 | 0.0 | 4.0 | 0.00 | 0.48 | 0.20 | 80 | 1018.1 |
| 20260507123859 | 55 | 252 | 1.0 | 4.0 | 0.00 | 0.48 | 0.20 | 80 | 1018.1 |
| 20260507123658 | 55 | 256 | 0.0 | 4.0 | 0.00 | 0.48 | 0.20 | 79 | 1018.2 |
| 20260507123558 | 55 | 256 | 0.0 | 4.0 | 0.00 | 0.48 | 0.20 | 79 | 1018.0 |
| 20260507123458 | 55 | 257 | 0.0 | 8.0 | 0.00 | 0.48 | 0.20 | 79 | 1018.2 |
| 20260507123358 | 54 | 259 | 0.0 | 8.0 | 0.00 | 0.48 | 0.20 | 81 | 1018.1 |
| 20260507123259 | 54 | 256 | 0.0 | 8.0 | 0.00 | 0.48 | 0.20 | 81 | 1018.1 |
| 20260507123159 | 54 | 252 | 1.0 | 8.0 | 0.00 | 0.48 | 0.20 | 80 | 1018.0 |
| 20260507122959 | 54 | 246 | 0.0 | 8.0 | 0.00 | 0.48 | 0.20 | 81 | 1018.2 |
| 20260507122859 | 54 | 244 | 0.0 | 8.0 | 0.00 | 0.48 | 0.20 | 81 | 1018.1 |
| 20260507122758 | 53 | 242 | 2.0 | 8.0 | 0.00 | 0.48 | 0.20 | 81 | 1018.1 |
| 20260507122658 | 53 | 242 | 2.0 | 8.0 | 0.00 | 0.48 | 0.20 | 81 | 1018.2 |
| 20260507122458 | 54 | 239 | 0.0 | 4.0 | 0.00 | 0.48 | 0.20 | 82 | 1018.3 |
| 20260507122359 | 54 | 233 | 0.0 | 4.0 | 0.00 | 0.48 | 0.20 | 82 | 1018.1 |
| 20260507122258 | 54 | 235 | 1.0 | 4.0 | 0.00 | 0.48 | 0.20 | 81 | 1017.8 |
| 20260507122158 | 54 | 237 | 0.0 | 6.0 | 0.00 | 0.48 | 0.20 | 81 | 1018.3 |
| 20260507122058 | 54 | 236 | 1.0 | 6.0 | 0.00 | 0.48 | 0.20 | 81 | 1018.0 |
| 20260507121858 | 54 | 227 | 1.0 | 8.0 | 0.00 | 0.48 | 0.20 | 81 | 1018.3 |
| 20260507121759 | 54 | 222 | 0.0 | 8.0 | 0.00 | 0.48 | 0.20 | 81 | 1018.0 |
| 20260507121658 | 54 | 217 | 0.0 | 8.0 | 0.00 | 0.48 | 0.20 | 80 | 1018.1 |
| 20260507121558 | 54 | 215 | 0.0 | 8.0 | 0.00 | 0.48 | 0.20 | 80 | 1017.9 |
| 20260507121500 | 54 | 217 | 2.0 | 8.0 | 0.00 | 0.48 | 0.20 | 80 | 1018.0 |
| 20260507121358 | 54 | 222 | 0.0 | 8.0 | 0.00 | 0.48 | 0.20 | 79 | 1018.1 |
| 20260507121258 | 54 | 224 | 3.0 | 8.0 | 0.00 | 0.48 | 0.20 | 78 | 1017.9 |
| 20260507121158 | 55 | 218 | 2.0 | 8.0 | 0.00 | 0.48 | 0.20 | 78 | 1018.0 |
| 20260507121059 | 55 | 217 | 2.0 | 8.0 | 0.00 | 0.48 | 0.20 | 77 | 1018.0 |
| 20260507120959 | 54 | 214 | 3.0 | 8.0 | 0.00 | 0.48 | 0.20 | 75 | 1017.9 |
| 20260507120858 | 54 | 214 | 3.0 | 8.0 | 0.00 | 0.48 | 0.20 | 75 | 1018.1 |
| 20260507120758 | 54 | 214 | 3.0 | 8.0 | 0.00 | 0.48 | 0.20 | 75 | 1018.2 |
| 20260507120459 | 54 | 207 | 3.0 | 8.0 | 0.00 | 0.48 | 0.20 | 76 | 1018.2 |
| 20260507120359 | 54 | 201 | 3.0 | 8.0 | 0.00 | 0.48 | 0.20 | 76 | 1018.2 |
| 20260507120258 | 54 | 194 | 3.0 | 8.0 | 0.00 | 0.48 | 0.20 | 76 | 1018.0 |
| 20260507120158 | 54 | 198 | 2.0 | 8.0 | 0.00 | 0.48 | 0.20 | 76 | 1018.0 |
| 20260507120058 | 54 | 200 | 2.0 | 8.0 | 0.00 | 0.48 | 0.20 | 76 | 1017.9 |
| 20260507120000 | 54 | 202 | 2.0 | 8.0 | 0.00 | 0.48 | 0.20 | 76 | 1018.0 |
| 20260507115758 | 54 | 206 | 1.0 | 8.0 | 0.00 | 0.48 | 0.20 | 77 | 1017.9 |
| 20260507115659 | 54 | 210 | 3.0 | 8.0 | 0.00 | 0.48 | 0.20 | 76 | 1018.0 |
| 20260507115558 | 54 | 214 | 3.0 | 8.0 | 0.00 | 0.48 | 0.20 | 76 | 1017.9 |
| 20260507115358 | 54 | 213 | 1.0 | 8.0 | 0.00 | 0.48 | 0.20 | 77 | 1018.0 |
| 20260507115258 | 54 | 219 | 1.0 | 8.0 | 0.00 | 0.48 | 0.20 | 76 | 1017.9 |
| 20260507115159 | 54 | 217 | 1.0 | 8.0 | 0.00 | 0.48 | 0.20 | 76 | 1018.0 |
| 20260507115058 | 54 | 214 | 2.0 | 8.0 | 0.00 | 0.48 | 0.20 | 76 | 1017.9 |
| 20260507114958 | 54 | 210 | 4.0 | 8.0 | 0.00 | 0.48 | 0.20 | 76 | 1017.8 |
| 20260507114858 | 54 | 207 | 2.0 | 8.0 | 0.00 | 0.48 | 0.20 | 76 | 1017.9 |
| 20260507114658 | 54 | 204 | 2.0 | 9.0 | 0.00 | 0.48 | 0.20 | 76 | 1017.9 |
| 20260507114559 | 54 | 205 | 3.0 | 11.0 | 0.00 | 0.48 | 0.20 | 76 | 1018.0 |
| 20260507114459 | 54 | 207 | 3.0 | 11.0 | 0.00 | 0.48 | 0.20 | 75 | 1018.1 |
| 20260507114359 | 54 | 205 | 4.0 | 11.0 | 0.00 | 0.48 | 0.20 | 75 | 1018.0 |
| 20260507114158 | 54 | 197 | 2.0 | 11.0 | 0.00 | 0.48 | 0.20 | 75 | 1017.9 |
| 20260507113958 | 54 | 198 | 4.0 | 11.0 | 0.00 | 0.48 | 0.20 | 76 | 1017.9 |
| 20260507113758 | 54 | 200 | 2.0 | 11.0 | 0.00 | 0.48 | 0.20 | 77 | 1017.9 |
| 20260507113658 | 54 | 204 | 5.0 | 11.0 | 0.00 | 0.48 | 0.20 | 76 | 1018.0 |
| 20260507113559 | 54 | 206 | 4.0 | 8.0 | 0.00 | 0.48 | 0.20 | 75 | 1018.0 |
| 20260507113458 | 54 | 206 | 5.0 | 8.0 | 0.00 | 0.48 | 0.20 | 75 | 1018.0 |
| 20260507113358 | 55 | 215 | 0.0 | 8.0 | 0.00 | 0.48 | 0.20 | 75 | 1017.9 |
| 20260507113258 | 55 | 218 | 0.0 | 8.0 | 0.00 | 0.48 | 0.20 | 75 | 1017.8 |
| 20260507113158 | 55 | 216 | 1.0 | 8.0 | 0.00 | 0.48 | 0.20 | 76 | 1018.0 |
| 20260507113059 | 54 | 213 | 4.0 | 8.0 | 0.00 | 0.48 | 0.20 | 74 | 1018.0 |
| 20260507112858 | 54 | 219 | 2.0 | 8.0 | 0.00 | 0.48 | 0.20 | 76 | 1018.0 |
| 20260507112758 | 54 | 220 | 2.0 | 8.0 | 0.00 | 0.48 | 0.20 | 76 | 1017.8 |
| 20260507112659 | 54 | 210 | 2.0 | 7.0 | 0.00 | 0.48 | 0.20 | 77 | 1017.9 |
| 20260507112558 | 54 | 205 | 2.0 | 7.0 | 0.00 | 0.48 | 0.20 | 78 | 1017.8 |
| 20260507112458 | 54 | 208 | 2.0 | 7.0 | 0.00 | 0.48 | 0.20 | 79 | 1017.8 |
| 20260507112358 | 54 | 192 | 2.0 | 7.0 | 0.00 | 0.48 | 0.20 | 79 | 1017.8 |
| 20260507112258 | 53 | 178 | 4.0 | 7.0 | 0.00 | 0.48 | 0.20 | 80 | 1018.0 |
| 20260507112159 | 53 | 173 | 1.0 | 4.0 | 0.00 | 0.48 | 0.20 | 80 | 1017.8 |
| 20260507112059 | 53 | 183 | 0.0 | 4.0 | 0.00 | 0.48 | 0.20 | 79 | 1018.0 |
| 20260507111958 | 53 | 192 | 0.0 | 4.0 | 0.00 | 0.48 | 0.20 | 79 | 1017.9 |
| 20260507111858 | 53 | 205 | 0.0 | 4.0 | 0.00 | 0.48 | 0.20 | 79 | 1018.0 |
| 20260507111658 | 53 | 216 | 1.0 | 4.0 | 0.00 | 0.48 | 0.20 | 78 | 1018.0 |
| 20260507111500 | 53 | 218 | 2.0 | 6.0 | 0.00 | 0.48 | 0.20 | 78 | 1018.0 |
| 20260507111358 | 53 | 225 | 1.0 | 6.0 | 0.00 | 0.48 | 0.20 | 78 | 1018.1 |
| 20260507111159 | 53 | 234 | 1.0 | 6.0 | 0.00 | 0.48 | 0.20 | 77 | 1018.0 |
| 20260507111059 | 53 | 232 | 2.0 | 6.0 | 0.00 | 0.48 | 0.20 | 78 | 1018.0 |
| 20260507110958 | 53 | 225 | 2.0 | 6.0 | 0.00 | 0.48 | 0.20 | 78 | 1018.1 |
| 20260507110758 | 53 | 212 | 0.0 | 6.0 | 0.00 | 0.48 | 0.20 | 79 | 1018.1 |
| 20260507110658 | 53 | 210 | 2.0 | 6.0 | 0.00 | 0.48 | 0.20 | 79 | 1018.0 |
| 20260507110459 | 53 | 206 | 2.0 | 6.0 | 0.00 | 0.48 | 0.20 | 79 | 1018.0 |
| 20260507110258 | 53 | 197 | 1.0 | 8.0 | 0.00 | 0.48 | 0.20 | 80 | 1018.1 |
| 20260507110158 | 53 | 200 | 1.0 | 8.0 | 0.00 | 0.48 | 0.20 | 80 | 1018.0 |
| 20260507110059 | 53 | 207 | 2.0 | 8.0 | 0.00 | 0.48 | 0.20 | 80 | 1018.2 |
| 20260507105959 | 53 | 210 | 2.0 | 8.0 | 0.00 | 0.48 | 0.20 | 80 | 1018.2 |
| 20260507105859 | 53 | 212 | 2.0 | 9.0 | 0.00 | 0.48 | 0.20 | 80 | 1018.2 |
| 20260507105558 | 53 | 198 | 2.0 | 9.0 | 0.00 | 0.48 | 0.20 | 79 | 1017.9 |
| 20260507105458 | 53 | 196 | 2.0 | 9.0 | 0.00 | 0.48 | 0.20 | 80 | 1018.0 |
| 20260507105358 | 53 | 197 | 4.0 | 9.0 | 0.00 | 0.48 | 0.20 | 79 | 1018.2 |
| 20260507105259 | 53 | 202 | 4.0 | 9.0 | 0.00 | 0.48 | 0.20 | 79 | 1017.9 |
| 20260507104958 | 53 | 192 | 2.0 | 9.0 | 0.00 | 0.48 | 0.20 | 80 | 1018.2 |
| 20260507104858 | 52 | 189 | 4.0 | 9.0 | 0.00 | 0.48 | 0.20 | 79 | 1017.7 |
| 20260507104759 | 52 | 221 | 6.0 | 9.0 | 0.00 | 0.48 | 0.20 | 79 | 1018.1 |
| 20260507104658 | 53 | 221 | 2.0 | 6.0 | 0.00 | 0.48 | 0.20 | 81 | 1018.0 |
| 20260507104500 | 53 | 229 | 1.0 | 6.0 | 0.00 | 0.48 | 0.20 | 80 | 1018.1 |
| 20260507104359 | 53 | 225 | 1.0 | 6.0 | 0.00 | 0.48 | 0.20 | 80 | 1018.0 |
| 20260507104258 | 53 | 218 | 1.0 | 6.0 | 0.00 | 0.48 | 0.20 | 80 | 1018.2 |
| 20260507104158 | 53 | 217 | 0.0 | 6.0 | 0.00 | 0.48 | 0.20 | 80 | 1017.9 |
| 20260507104058 | 53 | 215 | 0.0 | 6.0 | 0.00 | 0.48 | 0.20 | 80 | 1018.0 |
| 20260507103959 | 53 | 213 | 0.0 | 6.0 | 0.00 | 0.48 | 0.20 | 80 | 1018.1 |
| 20260507103859 | 53 | 215 | 2.0 | 7.0 | 0.00 | 0.48 | 0.20 | 79 | 1017.8 |
| 20260507103758 | 53 | 211 | 2.0 | 7.0 | 0.00 | 0.48 | 0.20 | 79 | 1018.1 |
| 20260507103658 | 53 | 214 | 0.0 | 7.0 | 0.00 | 0.48 | 0.20 | 80 | 1017.9 |
| 20260507103558 | 53 | 214 | 1.0 | 7.0 | 0.00 | 0.48 | 0.20 | 79 | 1018.1 |
| 20260507103459 | 53 | 212 | 2.0 | 8.0 | 0.00 | 0.48 | 0.20 | 77 | 1018.0 |
| 20260507103359 | 53 | 208 | 2.0 | 8.0 | 0.00 | 0.48 | 0.20 | 77 | 1018.0 |
| 20260507103258 | 53 | 206 | 2.0 | 8.0 | 0.00 | 0.48 | 0.20 | 78 | 1018.1 |
| 20260507103059 | 53 | 205 | 1.0 | 8.0 | 0.00 | 0.48 | 0.20 | 78 | 1017.9 |
| 20260507103000 | 53 | 206 | 3.0 | 8.0 | 0.00 | 0.48 | 0.20 | 77 | 1018.1 |
| 20260507102859 | 53 | 206 | 5.0 | 8.0 | 0.00 | 0.48 | 0.20 | 76 | 1018.0 |
| 20260507102759 | 53 | 207 | 5.0 | 8.0 | 0.00 | 0.48 | 0.20 | 76 | 1018.1 |
| 20260507102658 | 53 | 212 | 5.0 | 8.0 | 0.00 | 0.48 | 0.20 | 76 | 1017.9 |
| 20260507102558 | 53 | 213 | 5.0 | 8.0 | 0.00 | 0.48 | 0.20 | 76 | 1017.9 |
| 20260507102359 | 54 | 226 | 2.0 | 8.0 | 0.00 | 0.48 | 0.20 | 77 | 1017.9 |
| 20260507102258 | 54 | 235 | 0.0 | 8.0 | 0.00 | 0.48 | 0.20 | 78 | 1017.9 |
| 20260507102158 | 54 | 237 | 0.0 | 8.0 | 0.00 | 0.48 | 0.20 | 78 | 1018.1 |
| 20260507102058 | 53 | 239 | 2.0 | 8.0 | 0.00 | 0.48 | 0.20 | 78 | 1018.1 |
| 20260507101959 | 53 | 240 | 4.0 | 8.0 | 0.00 | 0.48 | 0.20 | 77 | 1018.1 |
| 20260507101859 | 53 | 241 | 3.0 | 8.0 | 0.00 | 0.48 | 0.20 | 78 | 1018.0 |
| 20260507101758 | 53 | 239 | 5.0 | 8.0 | 0.00 | 0.48 | 0.20 | 78 | 1017.8 |
| 20260507101658 | 53 | 237 | 3.0 | 7.0 | 0.00 | 0.48 | 0.20 | 78 | 1017.7 |
| 20260507101558 | 53 | 239 | 2.0 | 7.0 | 0.00 | 0.48 | 0.20 | 79 | 1018.0 |
| 20260507101500 | 52 | 238 | 3.0 | 7.0 | 0.00 | 0.48 | 0.20 | 78 | 1018.1 |
| 20260507101358 | 52 | 243 | 3.0 | 7.0 | 0.00 | 0.48 | 0.20 | 79 | 1017.9 |
| 20260507101258 | 52 | 241 | 1.0 | 7.0 | 0.00 | 0.48 | 0.20 | 80 | 1017.9 |
| 20260507101058 | 52 | 239 | 2.0 | 9.0 | 0.00 | 0.48 | 0.20 | 79 | 1018.1 |
| 20260507100859 | 52 | 239 | 2.0 | 9.0 | 0.00 | 0.48 | 0.20 | 80 | 1017.8 |
| 20260507100758 | 52 | 239 | 2.0 | 9.0 | 0.00 | 0.48 | 0.20 | 80 | 1017.8 |
| 20260507100658 | 51 | 240 | 3.0 | 9.0 | 0.00 | 0.48 | 0.20 | 79 | 1017.8 |
| 20260507100559 | 51 | 238 | 3.0 | 9.0 | 0.00 | 0.48 | 0.20 | 79 | 1017.9 |
| 20260507100458 | 51 | 235 | 3.0 | 9.0 | 0.00 | 0.48 | 0.20 | 79 | 1017.8 |
| 20260507100358 | 51 | 233 | 3.0 | 9.0 | 0.00 | 0.48 | 0.20 | 79 | 1018.0 |
| 20260507100258 | 51 | 229 | 3.0 | 9.0 | 0.00 | 0.48 | 0.20 | 79 | 1017.8 |
| 20260507100159 | 51 | 224 | 2.0 | 9.0 | 0.00 | 0.48 | 0.20 | 80 | 1017.8 |
| 20260507100059 | 51 | 220 | 5.0 | 9.0 | 0.00 | 0.48 | 0.20 | 80 | 1017.9 |
| 20260507100000 | 52 | 211 | 1.0 | 4.0 | 0.00 | 0.48 | 0.20 | 84 | 1017.9 |
| 20260507095859 | 52 | 210 | 1.0 | 4.0 | 0.00 | 0.48 | 0.20 | 84 | 1018.0 |
| 20260507095658 | 52 | 219 | 1.0 | 7.0 | 0.00 | 0.48 | 0.20 | 84 | 1018.0 |
| 20260507095558 | 52 | 229 | 1.0 | 7.0 | 0.00 | 0.48 | 0.20 | 84 | 1017.8 |
| 20260507095459 | 52 | 242 | 1.0 | 7.0 | 0.00 | 0.48 | 0.20 | 84 | 1017.7 |
| 20260507095359 | 52 | 248 | 1.0 | 7.0 | 0.00 | 0.48 | 0.20 | 84 | 1017.8 |
| 20260507095258 | 52 | 252 | 1.0 | 7.0 | 0.00 | 0.48 | 0.20 | 84 | 1017.8 |
| 20260507095158 | 52 | 261 | 1.0 | 7.0 | 0.00 | 0.48 | 0.20 | 85 | 1017.9 |
| 20260507095058 | 51 | 261 | 2.0 | 7.0 | 0.00 | 0.48 | 0.20 | 84 | 1017.9 |
| 20260507094959 | 51 | 265 | 1.0 | 7.0 | 0.00 | 0.48 | 0.20 | 84 | 1017.8 |
| 20260507094858 | 51 | 266 | 2.0 | 7.0 | 0.00 | 0.48 | 0.20 | 83 | 1018.0 |
| 20260507094758 | 51 | 264 | 0.0 | 7.0 | 0.00 | 0.48 | 0.20 | 85 | 1017.9 |
| 20260507094558 | 51 | 251 | 4.0 | 7.0 | 0.00 | 0.48 | 0.20 | 84 | 1018.0 |
| 20260507094500 | 51 | 238 | 4.0 | 8.0 | 0.00 | 0.48 | 0.20 | 84 | 1017.9 |
| 20260507094258 | 51 | 219 | 4.0 | 9.0 | 0.00 | 0.48 | 0.20 | 84 | 1017.8 |
| 20260507094158 | 51 | 209 | 2.0 | 9.0 | 0.00 | 0.48 | 0.20 | 85 | 1017.9 |
| 20260507094059 | 51 | 206 | 2.0 | 11.0 | 0.00 | 0.48 | 0.20 | 86 | 1017.8 |
| 20260507093959 | 51 | 202 | 2.0 | 11.0 | 0.00 | 0.48 | 0.20 | 86 | 1017.9 |
| 20260507093758 | 51 | 199 | 2.0 | 11.0 | 0.00 | 0.48 | 0.20 | 84 | 1017.8 |
| 20260507093558 | 50 | 202 | 2.0 | 11.0 | 0.00 | 0.48 | 0.20 | 84 | 1017.9 |
| 20260507093458 | 50 | 205 | 3.0 | 11.0 | 0.00 | 0.48 | 0.20 | 84 | 1017.8 |
| 20260507093359 | 50 | 205 | 1.0 | 11.0 | 0.00 | 0.48 | 0.20 | 84 | 1017.9 |
| 20260507093259 | 50 | 204 | 4.0 | 11.0 | 0.00 | 0.48 | 0.20 | 83 | 1017.9 |
| 20260507093158 | 50 | 204 | 4.0 | 11.0 | 0.00 | 0.48 | 0.20 | 83 | 1018.0 |
| 20260507093058 | 50 | 206 | 6.0 | 11.0 | 0.00 | 0.48 | 0.20 | 83 | 1017.9 |
| 20260507093000 | 50 | 207 | 3.0 | 11.0 | 0.00 | 0.48 | 0.20 | 84 | 1017.9 |
| 20260507092858 | 50 | 207 | 4.0 | 11.0 | 0.00 | 0.48 | 0.20 | 84 | 1017.9 |
| 20260507092658 | 50 | 204 | 5.0 | 11.0 | 0.00 | 0.48 | 0.20 | 85 | 1017.9 |
| 20260507092559 | 50 | 202 | 2.0 | 11.0 | 0.00 | 0.48 | 0.20 | 85 | 1017.8 |
| 20260507092459 | 50 | 198 | 0.0 | 11.0 | 0.00 | 0.48 | 0.20 | 85 | 1017.6 |
| 20260507092359 | 50 | 193 | 4.0 | 11.0 | 0.00 | 0.48 | 0.20 | 85 | 1017.9 |
| 20260507092258 | 50 | 192 | 6.0 | 8.0 | 0.00 | 0.48 | 0.20 | 85 | 1017.8 |
| 20260507092158 | 50 | 192 | 2.0 | 7.0 | 0.00 | 0.48 | 0.20 | 87 | 1017.6 |
| 20260507092058 | 50 | 196 | 2.0 | 7.0 | 0.00 | 0.48 | 0.20 | 87 | 1017.7 |
| 20260507091958 | 50 | 196 | 2.0 | 7.0 | 0.00 | 0.48 | 0.20 | 87 | 1017.8 |
| 20260507091859 | 50 | 196 | 2.0 | 7.0 | 0.00 | 0.48 | 0.20 | 87 | 1017.7 |
| 20260507091759 | 49 | 201 | 2.0 | 7.0 | 0.00 | 0.48 | 0.20 | 87 | 1017.9 |
| 20260507091658 | 49 | 208 | 2.0 | 7.0 | 0.00 | 0.48 | 0.20 | 87 | 1017.7 |
| 20260507091558 | 49 | 214 | 2.0 | 7.0 | 0.00 | 0.48 | 0.20 | 87 | 1017.6 |
| 20260507091500 | 49 | 218 | 2.0 | 7.0 | 0.00 | 0.48 | 0.20 | 87 | 1017.7 |
| 20260507090958 | 50 | 225 | 1.0 | 6.0 | 0.00 | 0.48 | 0.20 | 88 | 1017.5 |
| 20260507090859 | 49 | 223 | 4.0 | 6.0 | 0.00 | 0.48 | 0.20 | 88 | 1017.5 |
| 20260507090759 | 49 | 218 | 4.0 | 6.0 | 0.00 | 0.48 | 0.20 | 88 | 1017.7 |
| 20260507090659 | 49 | 212 | 4.0 | 6.0 | 0.00 | 0.48 | 0.20 | 88 | 1017.8 |
| 20260507090458 | 50 | 203 | 0.0 | 8.0 | 0.00 | 0.48 | 0.20 | 88 | 1017.7 |
| 20260507090358 | 50 | 199 | 0.0 | 8.0 | 0.00 | 0.48 | 0.20 | 88 | 1017.7 |
| 20260507090259 | 50 | 196 | 0.0 | 8.0 | 0.00 | 0.48 | 0.20 | 88 | 1017.6 |
| 20260507090159 | 50 | 193 | 0.0 | 8.0 | 0.00 | 0.48 | 0.20 | 88 | 1017.4 |
| 20260507090059 | 50 | 190 | 0.0 | 8.0 | 0.00 | 0.48 | 0.20 | 88 | 1017.6 |
| 20260507090000 | 50 | 190 | 0.0 | 8.0 | 0.00 | 0.48 | 0.20 | 88 | 1017.6 |
| 20260507085759 | 49 | 194 | 2.0 | 8.0 | 0.00 | 0.48 | 0.20 | 87 | 1017.4 |
| 20260507085558 | 49 | 200 | 5.0 | 8.0 | 0.00 | 0.48 | 0.20 | 86 | 1017.5 |
| 20260507085258 | 50 | 214 | 2.0 | 7.0 | 0.00 | 0.48 | 0.20 | 88 | 1017.5 |
| 20260507085159 | 50 | 219 | 2.0 | 7.0 | 0.00 | 0.48 | 0.20 | 88 | 1017.6 |
| 20260507085059 | 50 | 219 | 2.0 | 7.0 | 0.00 | 0.48 | 0.20 | 88 | 1017.5 |
| 20260507084958 | 49 | 216 | 2.0 | 7.0 | 0.00 | 0.48 | 0.20 | 88 | 1017.4 |
| 20260507084858 | 49 | 211 | 2.0 | 7.0 | 0.00 | 0.48 | 0.20 | 88 | 1017.4 |
| 20260507084759 | 49 | 207 | 2.0 | 7.0 | 0.00 | 0.48 | 0.20 | 89 | 1017.3 |
| 20260507084659 | 49 | 202 | 2.0 | 7.0 | 0.00 | 0.48 | 0.20 | 89 | 1017.3 |
| 20260507084359 | 49 | 188 | 2.0 | 9.0 | 0.00 | 0.48 | 0.20 | 89 | 1017.6 |
| 20260507084259 | 49 | 183 | 4.0 | 9.0 | 0.00 | 0.48 | 0.20 | 88 | 1017.5 |
| 20260507084158 | 49 | 178 | 3.0 | 9.0 | 0.00 | 0.48 | 0.20 | 88 | 1017.6 |
| 20260507084058 | 49 | 178 | 3.0 | 9.0 | 0.00 | 0.48 | 0.20 | 88 | 1017.6 |
| 20260507083859 | 49 | 174 | 3.0 | 9.0 | 0.00 | 0.48 | 0.20 | 88 | 1017.5 |
| 20260507083759 | 49 | 175 | 3.0 | 9.0 | 0.00 | 0.48 | 0.20 | 88 | 1017.6 |
| 20260507083658 | 49 | 177 | 3.0 | 9.0 | 0.00 | 0.48 | 0.20 | 88 | 1017.5 |
| 20260507083558 | 49 | 179 | 2.0 | 9.0 | 0.00 | 0.48 | 0.20 | 88 | 1017.7 |
| 20260507083458 | 49 | 182 | 5.0 | 9.0 | 0.00 | 0.48 | 0.20 | 88 | 1017.5 |
| 20260507083359 | 49 | 185 | 4.0 | 8.0 | 0.00 | 0.48 | 0.20 | 87 | 1017.4 |
| 20260507083259 | 49 | 186 | 4.0 | 8.0 | 0.00 | 0.48 | 0.20 | 87 | 1017.5 |
| 20260507083158 | 49 | 187 | 4.0 | 8.0 | 0.00 | 0.48 | 0.20 | 87 | 1017.3 |
| 20260507083058 | 49 | 188 | 4.0 | 8.0 | 0.00 | 0.48 | 0.20 | 87 | 1017.5 |
| 20260507083000 | 49 | 184 | 2.0 | 7.0 | 0.00 | 0.48 | 0.20 | 88 | 1017.5 |
| 20260507082859 | 49 | 176 | 2.0 | 7.0 | 0.00 | 0.48 | 0.20 | 88 | 1017.7 |
| 20260507082759 | 49 | 164 | 4.0 | 7.0 | 0.00 | 0.48 | 0.20 | 88 | 1017.5 |
| 20260507082558 | 49 | 139 | 3.0 | 7.0 | 0.00 | 0.48 | 0.20 | 88 | 1017.3 |
| 20260507082458 | 49 | 128 | 1.0 | 7.0 | 0.00 | 0.48 | 0.20 | 89 | 1017.3 |
| 20260507082359 | 49 | 122 | 1.0 | 7.0 | 0.00 | 0.48 | 0.20 | 89 | 1017.4 |
| 20260507082259 | 49 | 116 | 2.0 | 7.0 | 0.00 | 0.48 | 0.20 | 89 | 1017.4 |
| 20260507082158 | 49 | 116 | 1.0 | 7.0 | 0.00 | 0.48 | 0.20 | 89 | 1017.0 |
| 20260507082058 | 48 | 118 | 3.0 | 7.0 | 0.00 | 0.48 | 0.20 | 89 | 1017.2 |
| 20260507081759 | 48 | 182 | 3.0 | 7.0 | 0.00 | 0.48 | 0.20 | 89 | 1017.2 |
| 20260507081659 | 48 | 199 | 3.0 | 7.0 | 0.00 | 0.48 | 0.20 | 89 | 1017.1 |
| 20260507081559 | 48 | 228 | 3.0 | 7.0 | 0.00 | 0.48 | 0.20 | 89 | 1017.1 |
| 20260507081500 | 48 | 247 | 3.0 | 7.0 | 0.00 | 0.48 | 0.20 | 89 | 1017.2 |
| 20260507081359 | 48 | 257 | 3.0 | 7.0 | 0.00 | 0.48 | 0.20 | 89 | 1017.2 |
| 20260507081258 | 48 | 260 | 4.0 | 8.0 | 0.00 | 0.48 | 0.20 | 90 | 1017.1 |
| 20260507081158 | 48 | 253 | 4.0 | 9.0 | 0.01 | 0.48 | 0.20 | 90 | 1017.2 |
| 20260507081059 | 48 | 246 | 4.0 | 9.0 | 0.01 | 0.48 | 0.20 | 90 | 1017.2 |
| 20260507080959 | 48 | 240 | 4.0 | 9.0 | 0.01 | 0.48 | 0.20 | 90 | 1017.5 |
| 20260507080858 | 48 | 236 | 4.0 | 9.0 | 0.01 | 0.48 | 0.20 | 90 | 1017.3 |
| 20260507080758 | 48 | 233 | 4.0 | 9.0 | 0.01 | 0.48 | 0.20 | 90 | 1017.2 |
| 20260507080659 | 48 | 238 | 4.0 | 9.0 | 0.01 | 0.48 | 0.20 | 91 | 1017.2 |
| 20260507080459 | 48 | 226 | 4.0 | 9.0 | 0.01 | 0.48 | 0.20 | 91 | 1017.3 |
| 20260507080258 | 48 | 208 | 2.0 | 9.0 | 0.01 | 0.48 | 0.20 | 92 | 1017.1 |
| 20260507080058 | 48 | 206 | 3.0 | 9.0 | 0.02 | 0.48 | 0.20 | 92 | 1017.2 |
| 20260507080000 | 47 | 202 | 2.0 | 9.0 | 0.02 | 0.48 | 0.20 | 92 | 1017.1 |
| 20260507075858 | 47 | 201 | 2.0 | 9.0 | 0.02 | 0.48 | 0.20 | 92 | 1017.5 |
| 20260507075758 | 47 | 202 | 2.0 | 9.0 | 0.02 | 0.48 | 0.20 | 92 | 1017.3 |
| 20260507075559 | 48 | 200 | 2.0 | 9.0 | 0.02 | 0.48 | 0.20 | 92 | 1017.4 |
| 20260507075359 | 47 | 202 | 2.0 | 9.0 | 0.02 | 0.48 | 0.20 | 92 | 1017.3 |
| 20260507075258 | 47 | 202 | 2.0 | 9.0 | 0.02 | 0.48 | 0.20 | 92 | 1017.1 |
| 20260507075058 | 47 | 209 | 4.0 | 11.0 | 0.02 | 0.48 | 0.20 | 93 | 1017.2 |
| 20260507074959 | 47 | 214 | 2.0 | 11.0 | 0.02 | 0.48 | 0.20 | 93 | 1017.1 |
| 20260507074759 | 47 | 212 | 2.0 | 11.0 | 0.02 | 0.48 | 0.20 | 93 | 1017.1 |
| 20260507074658 | 47 | 211 | 2.0 | 11.0 | 0.04 | 0.48 | 0.20 | 94 | 1017.1 |
| 20260507074558 | 47 | 210 | 2.0 | 11.0 | 0.04 | 0.48 | 0.20 | 94 | 1017.2 |
| 20260507074500 | 47 | 206 | 3.0 | 11.0 | 0.04 | 0.48 | 0.20 | 94 | 1017.1 |
| 20260507074359 | 47 | 206 | 4.0 | 11.0 | 0.04 | 0.48 | 0.20 | 94 | 1017.2 |
| 20260507074058 | 47 | 204 | 5.0 | 11.0 | 0.04 | 0.48 | 0.20 | 94 | 1017.1 |
| 20260507073859 | 47 | 203 | 2.0 | 6.0 | 0.04 | 0.48 | 0.20 | 96 | 1017.0 |
| 20260507073759 | 47 | 204 | 2.0 | 6.0 | 0.04 | 0.48 | 0.20 | 96 | 1017.1 |
| 20260507073659 | 47 | 204 | 2.0 | 6.0 | 0.04 | 0.48 | 0.20 | 96 | 1017.2 |
| 20260507073558 | 47 | 202 | 3.0 | 6.0 | 0.04 | 0.48 | 0.20 | 96 | 1017.0 |
| 20260507073459 | 47 | 200 | 2.0 | 6.0 | 0.04 | 0.48 | 0.20 | 96 | 1017.0 |
| 20260507073359 | 47 | 196 | 2.0 | 6.0 | 0.04 | 0.48 | 0.20 | 96 | 1016.9 |
| 20260507073259 | 47 | 192 | 2.0 | 6.0 | 0.04 | 0.48 | 0.20 | 96 | 1017.0 |
| 20260507073158 | 47 | 187 | 2.0 | 6.0 | 0.04 | 0.48 | 0.20 | 96 | 1017.2 |
| 20260507073058 | 47 | 179 | 2.0 | 6.0 | 0.04 | 0.48 | 0.20 | 96 | 1016.9 |
| 20260507073000 | 47 | 175 | 2.0 | 4.0 | 0.04 | 0.48 | 0.20 | 96 | 1017.0 |
| 20260507072858 | 47 | 168 | 2.0 | 4.0 | 0.04 | 0.48 | 0.20 | 96 | 1017.0 |
| 20260507072658 | 47 | 160 | 2.0 | 4.0 | 0.05 | 0.48 | 0.20 | 97 | 1016.9 |
| 20260507072559 | 47 | 160 | 2.0 | 4.0 | 0.05 | 0.48 | 0.20 | 97 | 1016.9 |
| 20260507072459 | 47 | 163 | 2.0 | 4.0 | 0.05 | 0.48 | 0.20 | 97 | 1017.0 |
| 20260507072358 | 47 | 167 | 2.0 | 4.0 | 0.05 | 0.48 | 0.20 | 97 | 1016.9 |
| 20260507072158 | 47 | 178 | 2.0 | 6.0 | 0.05 | 0.48 | 0.20 | 97 | 1016.9 |
| 20260507072058 | 47 | 188 | 2.0 | 6.0 | 0.05 | 0.48 | 0.20 | 97 | 1016.8 |
| 20260507071959 | 48 | 192 | 0.0 | 6.0 | 0.05 | 0.48 | 0.20 | 97 | 1016.8 |
| 20260507071859 | 47 | 187 | 2.0 | 6.0 | 0.05 | 0.48 | 0.20 | 97 | 1016.6 |
| 20260507071758 | 47 | 188 | 2.0 | 6.0 | 0.05 | 0.48 | 0.20 | 97 | 1016.8 |
| 20260507071658 | 47 | 189 | 0.0 | 6.0 | 0.05 | 0.48 | 0.20 | 97 | 1016.7 |
| 20260507071559 | 47 | 192 | 0.0 | 6.0 | 0.05 | 0.48 | 0.20 | 97 | 1016.8 |
| 20260507071158 | 47 | 200 | 3.0 | 6.0 | 0.04 | 0.47 | 0.19 | 97 | 1016.6 |
| 20260507071059 | 47 | 194 | 3.0 | 6.0 | 0.04 | 0.47 | 0.19 | 97 | 1016.6 |
| 20260507070859 | 47 | 195 | 2.0 | 6.0 | 0.04 | 0.47 | 0.19 | 97 | 1016.6 |
| 20260507070659 | 47 | 199 | 1.0 | 6.0 | 0.04 | 0.47 | 0.19 | 97 | 1016.7 |
| 20260507070558 | 47 | 200 | 2.0 | 6.0 | 0.04 | 0.47 | 0.19 | 97 | 1016.7 |
| 20260507070459 | 47 | 201 | 2.0 | 6.0 | 0.04 | 0.47 | 0.19 | 97 | 1016.6 |
| 20260507070359 | 46 | 202 | 2.0 | 6.0 | 0.04 | 0.47 | 0.19 | 97 | 1016.5 |
| 20260507070258 | 46 | 201 | 2.0 | 6.0 | 0.04 | 0.47 | 0.19 | 97 | 1016.7 |
| 20260507070158 | 46 | 197 | 3.0 | 6.0 | 0.02 | 0.46 | 0.18 | 97 | 1016.6 |
| 20260507070059 | 46 | 200 | 3.0 | 6.0 | 0.02 | 0.46 | 0.18 | 97 | 1016.4 |
| 20260507070000 | 46 | 204 | 3.0 | 6.0 | 0.02 | 0.46 | 0.18 | 97 | 1016.7 |
| 20260507065859 | 47 | 202 | 1.0 | 6.0 | 0.02 | 0.46 | 0.18 | 98 | 1016.7 |
| 20260507065659 | 47 | 190 | 2.0 | 6.0 | 0.02 | 0.46 | 0.18 | 97 | 1016.7 |
| 20260507065559 | 47 | 179 | 2.0 | 6.0 | 0.02 | 0.46 | 0.18 | 97 | 1016.5 |
| 20260507065458 | 47 | 175 | 0.0 | 6.0 | 0.02 | 0.46 | 0.18 | 98 | 1016.7 |
| 20260507065358 | 47 | 178 | 1.0 | 6.0 | 0.02 | 0.46 | 0.18 | 98 | 1016.7 |
| 20260507065159 | 47 | 183 | 0.0 | 6.0 | 0.02 | 0.46 | 0.18 | 98 | 1016.7 |
| 20260507064959 | 47 | 187 | 1.0 | 6.0 | 0.04 | 0.46 | 0.18 | 98 | 1016.7 |
| 20260507064859 | 47 | 189 | 2.0 | 6.0 | 0.04 | 0.46 | 0.18 | 98 | 1016.6 |
| 20260507064758 | 47 | 192 | 3.0 | 6.0 | 0.02 | 0.45 | 0.17 | 98 | 1016.5 |
| 20260507064658 | 47 | 198 | 3.0 | 6.0 | 0.02 | 0.45 | 0.17 | 98 | 1016.5 |
| 20260507064559 | 47 | 203 | 3.0 | 6.0 | 0.02 | 0.45 | 0.17 | 98 | 1016.5 |
| 20260507064500 | 47 | 210 | 1.0 | 6.0 | 0.02 | 0.45 | 0.17 | 98 | 1016.6 |
| 20260507064358 | 47 | 209 | 2.0 | 6.0 | 0.02 | 0.45 | 0.17 | 98 | 1016.6 |
| 20260507064159 | 47 | 204 | 2.0 | 6.0 | 0.02 | 0.45 | 0.17 | 98 | 1016.5 |
| 20260507064059 | 47 | 203 | 2.0 | 6.0 | 0.02 | 0.45 | 0.17 | 98 | 1016.3 |
| 20260507063959 | 46 | 201 | 2.0 | 6.0 | 0.02 | 0.45 | 0.17 | 98 | 1016.5 |
| 20260507063858 | 47 | 197 | 1.0 | 6.0 | 0.02 | 0.45 | 0.17 | 98 | 1016.2 |
| 20260507063758 | 47 | 191 | 1.0 | 6.0 | 0.02 | 0.45 | 0.17 | 98 | 1016.3 |
| 20260507063659 | 47 | 186 | 1.0 | 6.0 | 0.02 | 0.45 | 0.17 | 98 | 1016.4 |
| 20260507063559 | 46 | 183 | 2.0 | 6.0 | 0.02 | 0.45 | 0.17 | 98 | 1016.5 |
| 20260507063459 | 46 | 177 | 3.0 | 6.0 | 0.02 | 0.45 | 0.17 | 98 | 1016.3 |
| 20260507063358 | 47 | 167 | 0.0 | 4.0 | 0.02 | 0.45 | 0.17 | 98 | 1016.4 |
| 20260507063259 | 47 | 169 | 0.0 | 4.0 | 0.02 | 0.45 | 0.17 | 98 | 1016.4 |
| 20260507063159 | 47 | 177 | 0.0 | 4.0 | 0.02 | 0.45 | 0.17 | 98 | 1016.4 |
| 20260507063059 | 47 | 185 | 0.0 | 4.0 | 0.02 | 0.45 | 0.17 | 98 | 1016.1 |
| 20260507063000 | 47 | 186 | 0.0 | 4.0 | 0.02 | 0.45 | 0.17 | 98 | 1016.4 |
| 20260507062859 | 47 | 188 | 2.0 | 4.0 | 0.02 | 0.45 | 0.17 | 98 | 1016.3 |
| 20260507062659 | 47 | 194 | 2.0 | 4.0 | 0.01 | 0.44 | 0.15 | 98 | 1016.1 |
| 20260507062558 | 47 | 191 | 2.0 | 4.0 | 0.01 | 0.44 | 0.15 | 98 | 1016.1 |
| 20260507062459 | 47 | 188 | 0.0 | 4.0 | 0.01 | 0.44 | 0.15 | 98 | 1016.3 |
| 20260507062359 | 47 | 189 | 1.0 | 4.0 | 0.01 | 0.44 | 0.15 | 99 | 1016.4 |
| 20260507062159 | 47 | 184 | 2.0 | 4.0 | 0.02 | 0.44 | 0.15 | 98 | 1016.2 |
| 20260507061958 | 47 | 175 | 2.0 | 6.0 | 0.02 | 0.44 | 0.15 | 98 | 1016.1 |
| 20260507061859 | 47 | 177 | 0.0 | 6.0 | 0.02 | 0.44 | 0.15 | 99 | 1016.2 |
| 20260507061659 | 47 | 178 | 0.0 | 6.0 | 0.02 | 0.44 | 0.15 | 99 | 1016.3 |
| 20260507061558 | 47 | 179 | 0.0 | 6.0 | 0.02 | 0.44 | 0.15 | 99 | 1016.2 |
| 20260507061501 | 47 | 182 | 0.0 | 6.0 | 0.02 | 0.44 | 0.15 | 99 | 1016.4 |
| 20260507061359 | 46 | 185 | 1.0 | 6.0 | 0.02 | 0.44 | 0.15 | 99 | 1016.2 |
| 20260507061258 | 47 | 187 | 2.0 | 6.0 | 0.02 | 0.44 | 0.15 | 99 | 1016.3 |
| 20260507061158 | 47 | 189 | 2.0 | 6.0 | 0.02 | 0.44 | 0.15 | 99 | 1016.3 |
| 20260507061058 | 47 | 191 | 2.0 | 6.0 | 0.02 | 0.44 | 0.15 | 99 | 1016.3 |
| 20260507060959 | 47 | 191 | 4.0 | 6.0 | 0.02 | 0.44 | 0.15 | 99 | 1016.2 |
| 20260507060859 | 47 | 192 | 2.0 | 6.0 | 0.02 | 0.44 | 0.15 | 99 | 1016.3 |
| 20260507060759 | 47 | 189 | 2.0 | 6.0 | 0.02 | 0.44 | 0.15 | 99 | 1016.2 |
| 20260507060658 | 47 | 192 | 2.0 | 6.0 | 0.02 | 0.44 | 0.15 | 99 | 1016.2 |
| 20260507060558 | 47 | 193 | 2.0 | 6.0 | 0.02 | 0.44 | 0.15 | 99 | 1016.4 |
| 20260507060459 | 47 | 195 | 4.0 | 6.0 | 0.02 | 0.44 | 0.15 | 99 | 1016.3 |
| 20260507060359 | 47 | 197 | 3.0 | 6.0 | 0.02 | 0.44 | 0.15 | 99 | 1016.1 |
| 20260507060258 | 47 | 194 | 3.0 | 6.0 | 0.02 | 0.44 | 0.15 | 99 | 1016.1 |
| 20260507060158 | 47 | 192 | 3.0 | 6.0 | 0.02 | 0.44 | 0.15 | 99 | 1016.3 |
| 20260507060059 | 47 | 193 | 2.0 | 6.0 | 0.02 | 0.44 | 0.15 | 99 | 1016.1 |
| 20260507060000 | 47 | 197 | 2.0 | 6.0 | 0.02 | 0.44 | 0.15 | 99 | 1016.1 |
| 20260507055859 | 47 | 200 | 2.0 | 6.0 | 0.02 | 0.44 | 0.15 | 99 | 1016.1 |
| 20260507055759 | 47 | 210 | 1.0 | 6.0 | 0.02 | 0.44 | 0.15 | 99 | 1016.1 |
| 20260507055659 | 47 | 210 | 0.0 | 6.0 | 0.02 | 0.44 | 0.15 | 99 | 1016.0 |
| 20260507055559 | 47 | 211 | 2.0 | 6.0 | 0.02 | 0.44 | 0.15 | 99 | 1016.1 |
| 20260507055458 | 47 | 209 | 2.0 | 6.0 | 0.02 | 0.44 | 0.15 | 99 | 1015.9 |
| 20260507055358 | 47 | 199 | 3.0 | 4.0 | 0.02 | 0.44 | 0.15 | 99 | 1016.1 |
| 20260507055259 | 47 | 201 | 2.0 | 4.0 | 0.02 | 0.44 | 0.15 | 99 | 1016.0 |
| 20260507055059 | 47 | 197 | 1.0 | 4.0 | 0.01 | 0.43 | 0.14 | 99 | 1016.2 |
| 20260507054859 | 47 | 193 | 1.0 | 4.0 | 0.01 | 0.43 | 0.14 | 99 | 1016.0 |
| 20260507054758 | 47 | 192 | 1.0 | 4.0 | 0.01 | 0.43 | 0.14 | 99 | 1015.8 |
| 20260507054658 | 47 | 189 | 1.0 | 4.0 | 0.02 | 0.43 | 0.14 | 99 | 1016.0 |
| 20260507054500 | 47 | 192 | 1.0 | 4.0 | 0.02 | 0.43 | 0.14 | 99 | 1016.0 |
| 20260507054358 | 47 | 195 | 1.0 | 4.0 | 0.02 | 0.43 | 0.14 | 99 | 1016.0 |
| 20260507054258 | 47 | 201 | 1.0 | 4.0 | 0.02 | 0.43 | 0.14 | 99 | 1016.1 |
| 20260507054159 | 47 | 206 | 2.0 | 4.0 | 0.02 | 0.43 | 0.14 | 99 | 1015.9 |
| 20260507054059 | 47 | 206 | 2.0 | 4.0 | 0.02 | 0.43 | 0.14 | 99 | 1016.0 |
| 20260507053758 | 47 | 202 | 1.0 | 4.0 | 0.02 | 0.43 | 0.14 | 99 | 1016.0 |
| 20260507053659 | 47 | 200 | 1.0 | 4.0 | 0.02 | 0.43 | 0.14 | 99 | 1015.8 |
| 20260507053559 | 47 | 197 | 1.0 | 4.0 | 0.02 | 0.43 | 0.14 | 99 | 1015.8 |
| 20260507053258 | 47 | 184 | 0.0 | 4.0 | 0.02 | 0.43 | 0.14 | 99 | 1015.9 |
| 20260507053059 | 47 | 177 | 2.0 | 4.0 | 0.02 | 0.43 | 0.14 | 99 | 1015.7 |
| 20260507053001 | 47 | 170 | 2.0 | 4.0 | 0.02 | 0.43 | 0.14 | 99 | 1015.9 |
| 20260507052759 | 47 | 160 | 1.0 | 4.0 | 0.02 | 0.43 | 0.14 | 99 | 1015.6 |
| 20260507052459 | 47 | 163 | 0.0 | 2.0 | 0.14 | 0.43 | 0.14 | 99 | 1015.7 |
| 20260507052358 | 47 | 166 | 2.0 | 2.0 | 0.14 | 0.43 | 0.14 | 99 | 1016.0 |
| 20260507052159 | 47 | 170 | 0.0 | 2.0 | 0.13 | 0.41 | 0.13 | 99 | 1015.7 |
| 20260507052059 | 47 | 170 | 0.0 | 2.0 | 0.13 | 0.41 | 0.13 | 99 | 1015.6 |
| 20260507051959 | 47 | 168 | 0.0 | 2.0 | 0.13 | 0.41 | 0.13 | 99 | 1015.8 |
| 20260507051858 | 47 | 169 | 0.0 | 2.0 | 0.13 | 0.41 | 0.13 | 99 | 1015.7 |
| 20260507051759 | 47 | 167 | 1.0 | 4.0 | 0.13 | 0.41 | 0.13 | 99 | 1015.7 |
| 20260507051659 | 47 | 166 | 0.0 | 4.0 | 0.13 | 0.41 | 0.13 | 99 | 1015.7 |
| 20260507051501 | 47 | 161 | 0.0 | 4.0 | 0.13 | 0.41 | 0.13 | 99 | 1015.8 |
| 20260507051359 | 47 | 158 | 0.0 | 4.0 | 0.13 | 0.41 | 0.13 | 99 | 1015.7 |
| 20260507051259 | 47 | 158 | 0.0 | 4.0 | 0.13 | 0.41 | 0.13 | 99 | 1015.7 |
| 20260507051159 | 47 | 159 | 0.0 | 4.0 | 0.13 | 0.41 | 0.13 | 99 | 1015.4 |
| 20260507051058 | 47 | 160 | 0.0 | 4.0 | 0.13 | 0.41 | 0.13 | 99 | 1015.4 |
| 20260507050959 | 47 | 161 | 0.0 | 4.0 | 0.13 | 0.41 | 0.13 | 99 | 1015.7 |
| 20260507050859 | 47 | 163 | 2.0 | 4.0 | 0.13 | 0.41 | 0.13 | 99 | 1015.6 |
| 20260507050659 | 47 | 167 | 2.0 | 4.0 | 0.13 | 0.41 | 0.13 | 99 | 1015.5 |
| 20260507050558 | 47 | 168 | 1.0 | 4.0 | 0.13 | 0.41 | 0.13 | 99 | 1015.4 |
| 20260507050458 | 47 | 168 | 1.0 | 4.0 | 0.13 | 0.41 | 0.13 | 99 | 1015.6 |
| 20260507050359 | 47 | 169 | 1.0 | 4.0 | 0.13 | 0.41 | 0.13 | 99 | 1015.3 |
| 20260507050259 | 47 | 169 | 0.0 | 4.0 | 0.13 | 0.41 | 0.13 | 99 | 1015.6 |
| 20260507050159 | 47 | 167 | 0.0 | 4.0 | 0.13 | 0.41 | 0.13 | 99 | 1015.6 |
| 20260507050000 | 47 | 164 | 0.0 | 4.0 | 0.13 | 0.41 | 0.13 | 99 | 1015.5 |
| 20260507045859 | 47 | 162 | 0.0 | 4.0 | 0.13 | 0.41 | 0.13 | 99 | 1015.3 |
| 20260507045558 | 47 | 158 | 1.0 | 2.0 | 0.13 | 0.41 | 0.13 | 99 | 1015.3 |
| 20260507045459 | 47 | 158 | 1.0 | 2.0 | 0.13 | 0.41 | 0.13 | 99 | 1015.3 |
| 20260507045259 | 47 | 158 | 1.0 | 2.0 | 0.13 | 0.41 | 0.13 | 99 | 1015.4 |
| 20260507045159 | 47 | 158 | 1.0 | 2.0 | 0.13 | 0.41 | 0.13 | 99 | 1015.3 |
| 20260507045059 | 47 | 0 | 0.0 | 0.0 | 0.13 | 0.41 | 0.13 | 99 | 1015.3 |
| 20260507044958 | 46 | 0 | 0.0 | 0.0 | 0.13 | 0.41 | 0.13 | 99 | 1015.2 |
| 20260507044759 | 46 | 158 | 0.0 | 2.0 | 0.13 | 0.41 | 0.13 | 99 | 1015.3 |
| 20260507044559 | 46 | 158 | 0.0 | 2.0 | 0.12 | 0.40 | 0.12 | 99 | 1015.3 |
| 20260507044500 | 46 | 158 | 0.0 | 2.0 | 0.12 | 0.40 | 0.12 | 99 | 1015.2 |
| 20260507044359 | 46 | 158 | 0.0 | 2.0 | 0.12 | 0.40 | 0.12 | 99 | 1015.1 |
| 20260507044259 | 46 | 157 | 0.0 | 2.0 | 0.12 | 0.40 | 0.12 | 99 | 1015.1 |
| 20260507044059 | 46 | 154 | 0.0 | 2.0 | 0.12 | 0.40 | 0.12 | 99 | 1015.3 |
| 20260507043958 | 46 | 153 | 0.0 | 2.0 | 0.12 | 0.40 | 0.12 | 99 | 1015.1 |
| 20260507043858 | 46 | 152 | 1.0 | 2.0 | 0.12 | 0.40 | 0.12 | 99 | 1015.1 |
| 20260507043758 | 46 | 153 | 1.0 | 2.0 | 0.12 | 0.40 | 0.12 | 99 | 1015.2 |
| 20260507043658 | 46 | 153 | 1.0 | 2.0 | 0.12 | 0.40 | 0.12 | 99 | 1015.1 |
| 20260507043559 | 46 | 153 | 1.0 | 2.0 | 0.12 | 0.40 | 0.12 | 99 | 1015.1 |
| 20260507043459 | 46 | 152 | 1.0 | 2.0 | 0.12 | 0.40 | 0.12 | 99 | 1015.1 |
| 20260507043359 | 46 | 151 | 1.0 | 2.0 | 0.12 | 0.40 | 0.12 | 99 | 1015.1 |
| 20260507043158 | 46 | 150 | 1.0 | 2.0 | 0.12 | 0.40 | 0.12 | 99 | 1015.1 |
| 20260507043058 | 46 | 154 | 1.0 | 2.0 | 0.12 | 0.40 | 0.12 | 99 | 1015.1 |
| 20260507043000 | 46 | 160 | 1.0 | 2.0 | 0.12 | 0.40 | 0.12 | 99 | 1015.1 |
| 20260507042858 | 46 | 172 | 0.0 | 2.0 | 0.12 | 0.40 | 0.12 | 99 | 1015.1 |
| 20260507042758 | 46 | 181 | 1.0 | 2.0 | 0.12 | 0.40 | 0.12 | 99 | 1015.0 |
| 20260507042659 | 48 | 135 | 2.0 | 4.0 | 0.00 | 0.28 | 0.00 | 97 | 1015.2 |
| 20260507042559 | 48 | 135 | 2.0 | 4.0 | 0.00 | 0.28 | 0.00 | 97 | 1015.2 |
| 20260507042459 | 48 | 135 | 2.0 | 4.0 | 0.00 | 0.28 | 0.00 | 97 | 1014.9 |
| 20260507042358 | 48 | 135 | 2.0 | 4.0 | 0.00 | 0.28 | 0.00 | 97 | 1015.0 |
| 20260507042259 | 48 | 135 | 2.0 | 4.0 | 0.00 | 0.28 | 0.00 | 97 | 1015.0 |
| 20260507042159 | 48 | 135 | 2.0 | 4.0 | 0.00 | 0.28 | 0.00 | 97 | 1015.1 |
| 20260507042059 | 48 | 135 | 2.0 | 4.0 | 0.00 | 0.28 | 0.00 | 97 | 1014.9 |
| 20260507041959 | 48 | 135 | 2.0 | 4.0 | 0.00 | 0.28 | 0.00 | 97 | 1015.0 |
| 20260507041858 | 48 | 135 | 2.0 | 4.0 | 0.00 | 0.28 | 0.00 | 97 | 1014.8 |
| 20260507041758 | 48 | 135 | 2.0 | 4.0 | 0.00 | 0.28 | 0.00 | 97 | 1014.8 |
| 20260507041659 | 48 | 135 | 2.0 | 4.0 | 0.00 | 0.28 | 0.00 | 97 | 1014.8 |
| 20260507041559 | 48 | 135 | 2.0 | 4.0 | 0.00 | 0.28 | 0.00 | 97 | 1014.9 |
| 20260507041501 | 48 | 135 | 2.0 | 4.0 | 0.00 | 0.28 | 0.00 | 97 | 1014.8 |
| 20260507041359 | 48 | 135 | 2.0 | 4.0 | 0.00 | 0.28 | 0.00 | 97 | 1014.8 |
| 20260507041259 | 48 | 135 | 2.0 | 4.0 | 0.00 | 0.28 | 0.00 | 97 | 1014.7 |
| 20260507041159 | 48 | 135 | 2.0 | 4.0 | 0.00 | 0.28 | 0.00 | 97 | 1014.8 |
| 20260507041058 | 48 | 135 | 2.0 | 4.0 | 0.00 | 0.28 | 0.00 | 97 | 1014.8 |
| 20260507040958 | 48 | 135 | 2.0 | 4.0 | 0.00 | 0.28 | 0.00 | 97 | 1015.0 |
| 20260507040859 | 48 | 135 | 2.0 | 4.0 | 0.00 | 0.28 | 0.00 | 97 | 1014.9 |
| 20260507040759 | 48 | 135 | 2.0 | 4.0 | 0.00 | 0.28 | 0.00 | 97 | 1014.8 |
| 20260507040659 | 48 | 135 | 2.0 | 4.0 | 0.00 | 0.28 | 0.00 | 97 | 1014.9 |
| 20260507040559 | 48 | 135 | 2.0 | 4.0 | 0.00 | 0.28 | 0.00 | 97 | 1015.0 |
| 20260507040458 | 48 | 135 | 2.0 | 4.0 | 0.00 | 0.28 | 0.00 | 97 | 1014.8 |
| 20260507040359 | 48 | 135 | 2.0 | 4.0 | 0.00 | 0.28 | 0.00 | 97 | 1014.8 |
| 20260507040259 | 48 | 135 | 2.0 | 4.0 | 0.00 | 0.28 | 0.00 | 97 | 1014.8 |
| 20260507040159 | 48 | 135 | 2.0 | 4.0 | 0.00 | 0.28 | 0.00 | 97 | 1014.8 |
| 20260507040059 | 48 | 135 | 2.0 | 4.0 | 0.00 | 0.28 | 0.00 | 97 | 1014.6 |
| 20260507040000 | 48 | 135 | 2.0 | 4.0 | 0.00 | 0.28 | 0.00 | 97 | 1015.0 |
| 20260507035859 | 48 | 135 | 2.0 | 4.0 | 0.00 | 0.28 | 0.00 | 97 | 1014.8 |
| 20260507035758 | 48 | 135 | 2.0 | 4.0 | 0.00 | 0.28 | 0.00 | 97 | 1014.6 |
| 20260507035558 | 48 | 135 | 2.0 | 4.0 | 0.00 | 0.28 | 0.00 | 97 | 1014.7 |
| 20260507035459 | 48 | 135 | 2.0 | 4.0 | 0.00 | 0.28 | 0.00 | 97 | 1014.8 |
| 20260507035359 | 48 | 135 | 2.0 | 4.0 | 0.00 | 0.28 | 0.00 | 97 | 1014.7 |
| 20260507035259 | 48 | 135 | 2.0 | 4.0 | 0.00 | 0.28 | 0.00 | 97 | 1014.7 |
| 20260507035159 | 48 | 135 | 2.0 | 4.0 | 0.00 | 0.28 | 0.00 | 97 | 1014.8 |
| 20260507034959 | 48 | 135 | 2.0 | 4.0 | 0.00 | 0.28 | 0.00 | 97 | 1014.7 |
| 20260507034758 | 48 | 135 | 2.0 | 4.0 | 0.00 | 0.28 | 0.00 | 97 | 1014.9 |
| 20260507034559 | 48 | 135 | 2.0 | 4.0 | 0.00 | 0.28 | 0.00 | 97 | 1014.7 |
| 20260507034500 | 48 | 135 | 2.0 | 4.0 | 0.00 | 0.28 | 0.00 | 97 | 1014.9 |
| 20260507034358 | 48 | 135 | 2.0 | 4.0 | 0.00 | 0.28 | 0.00 | 97 | 1014.8 |
| 20260507034058 | 48 | 135 | 2.0 | 4.0 | 0.00 | 0.28 | 0.00 | 97 | 1014.6 |
| 20260507033959 | 48 | 135 | 2.0 | 4.0 | 0.00 | 0.28 | 0.00 | 97 | 1014.7 |
| 20260507033859 | 48 | 135 | 2.0 | 4.0 | 0.00 | 0.28 | 0.00 | 97 | 1014.7 |
| 20260507033759 | 48 | 135 | 2.0 | 4.0 | 0.00 | 0.28 | 0.00 | 97 | 1014.7 |
| 20260507033659 | 48 | 135 | 2.0 | 4.0 | 0.00 | 0.28 | 0.00 | 97 | 1014.8 |
| 20260507033459 | 48 | 135 | 2.0 | 4.0 | 0.00 | 0.28 | 0.00 | 97 | 1014.6 |
| 20260507033359 | 48 | 135 | 2.0 | 4.0 | 0.00 | 0.28 | 0.00 | 97 | 1014.7 |
| 20260507033259 | 48 | 135 | 2.0 | 4.0 | 0.00 | 0.28 | 0.00 | 97 | 1014.7 |
| 20260507033159 | 48 | 135 | 2.0 | 4.0 | 0.00 | 0.28 | 0.00 | 97 | 1014.6 |
| 20260507033001 | 48 | 135 | 2.0 | 4.0 | 0.00 | 0.28 | 0.00 | 97 | 1014.7 |
| 20260507032859 | 48 | 135 | 2.0 | 4.0 | 0.00 | 0.28 | 0.00 | 97 | 1014.5 |
| 20260507032759 | 48 | 135 | 2.0 | 4.0 | 0.00 | 0.28 | 0.00 | 97 | 1014.8 |
| 20260507032659 | 48 | 135 | 2.0 | 4.0 | 0.00 | 0.28 | 0.00 | 97 | 1014.6 |
| 20260507032558 | 48 | 135 | 2.0 | 4.0 | 0.00 | 0.28 | 0.00 | 97 | 1014.6 |
| 20260507032459 | 48 | 135 | 2.0 | 4.0 | 0.00 | 0.28 | 0.00 | 97 | 1014.8 |
| 20260507032359 | 48 | 135 | 2.0 | 4.0 | 0.00 | 0.28 | 0.00 | 97 | 1014.4 |
| 20260507032259 | 48 | 135 | 2.0 | 4.0 | 0.00 | 0.28 | 0.00 | 97 | 1014.7 |
| 20260507032159 | 48 | 135 | 2.0 | 4.0 | 0.00 | 0.28 | 0.00 | 97 | 1014.8 |
| 20260507032059 | 48 | 135 | 2.0 | 4.0 | 0.00 | 0.28 | 0.00 | 97 | 1014.6 |
| 20260507031959 | 48 | 135 | 2.0 | 4.0 | 0.00 | 0.28 | 0.00 | 97 | 1014.4 |
| 20260507031859 | 48 | 135 | 2.0 | 4.0 | 0.00 | 0.28 | 0.00 | 97 | 1014.5 |
| 20260507031759 | 48 | 135 | 2.0 | 4.0 | 0.00 | 0.28 | 0.00 | 97 | 1014.6 |
| 20260507031659 | 48 | 135 | 2.0 | 4.0 | 0.00 | 0.28 | 0.00 | 97 | 1014.6 |
| 20260507031559 | 48 | 135 | 2.0 | 4.0 | 0.00 | 0.28 | 0.00 | 97 | 1014.5 |
| 20260507031500 | 48 | 135 | 2.0 | 4.0 | 0.00 | 0.28 | 0.00 | 97 | 1014.4 |
| 20260507031359 | 48 | 135 | 2.0 | 4.0 | 0.00 | 0.28 | 0.00 | 97 | 1014.5 |
| 20260507031159 | 48 | 135 | 2.0 | 4.0 | 0.00 | 0.28 | 0.00 | 97 | 1014.6 |
| 20260507030959 | 48 | 135 | 2.0 | 4.0 | 0.00 | 0.28 | 0.00 | 97 | 1014.5 |
| 20260507030758 | 48 | 135 | 2.0 | 4.0 | 0.00 | 0.28 | 0.00 | 97 | 1014.3 |
| 20260507030658 | 48 | 135 | 2.0 | 4.0 | 0.00 | 0.28 | 0.00 | 97 | 1014.6 |
| 20260507030559 | 48 | 135 | 2.0 | 4.0 | 0.00 | 0.28 | 0.00 | 97 | 1014.5 |
| 20260507030459 | 48 | 135 | 2.0 | 4.0 | 0.00 | 0.28 | 0.00 | 97 | 1014.4 |
| 20260507030359 | 48 | 135 | 2.0 | 4.0 | 0.00 | 0.28 | 0.00 | 97 | 1014.4 |
| 20260507030258 | 48 | 135 | 2.0 | 4.0 | 0.00 | 0.28 | 0.00 | 97 | 1014.2 |
| 20260507030159 | 48 | 135 | 2.0 | 4.0 | 0.00 | 0.28 | 0.00 | 97 | 1014.3 |
| 20260507030059 | 48 | 135 | 2.0 | 4.0 | 0.00 | 0.28 | 0.00 | 97 | 1014.3 |
| 20260507030001 | 48 | 135 | 2.0 | 4.0 | 0.00 | 0.28 | 0.00 | 97 | 1014.5 |
| 20260507025859 | 48 | 135 | 2.0 | 4.0 | 0.00 | 0.28 | 0.00 | 97 | 1014.6 |
| 20260507025559 | 48 | 135 | 2.0 | 4.0 | 0.00 | 0.28 | 0.00 | 97 | 1014.2 |
| 20260507025358 | 48 | 135 | 2.0 | 4.0 | 0.00 | 0.28 | 0.00 | 97 | 1014.5 |
| 20260507025259 | 48 | 135 | 2.0 | 4.0 | 0.00 | 0.28 | 0.00 | 97 | 1014.4 |
| 20260507025159 | 48 | 135 | 2.0 | 4.0 | 0.00 | 0.28 | 0.00 | 97 | 1014.6 |
| 20260507025059 | 48 | 135 | 2.0 | 4.0 | 0.00 | 0.28 | 0.00 | 97 | 1014.3 |
| 20260507024959 | 48 | 135 | 2.0 | 4.0 | 0.00 | 0.28 | 0.00 | 97 | 1014.3 |
| 20260507024859 | 48 | 135 | 2.0 | 4.0 | 0.00 | 0.28 | 0.00 | 97 | 1014.2 |
| 20260507024759 | 48 | 135 | 2.0 | 4.0 | 0.00 | 0.28 | 0.00 | 97 | 1014.3 |
| 20260507024559 | 48 | 135 | 2.0 | 4.0 | 0.00 | 0.28 | 0.00 | 97 | 1014.4 |
| 20260507024501 | 48 | 135 | 2.0 | 4.0 | 0.00 | 0.28 | 0.00 | 97 | 1014.3 |
| 20260507024359 | 48 | 135 | 2.0 | 4.0 | 0.00 | 0.28 | 0.00 | 97 | 1014.3 |
| 20260507024259 | 48 | 135 | 2.0 | 4.0 | 0.00 | 0.28 | 0.00 | 97 | 1014.5 |
| 20260507024158 | 48 | 135 | 2.0 | 4.0 | 0.00 | 0.28 | 0.00 | 97 | 1014.5 |
| 20260507024058 | 48 | 135 | 2.0 | 4.0 | 0.00 | 0.28 | 0.00 | 97 | 1014.3 |
| 20260507023859 | 48 | 135 | 2.0 | 4.0 | 0.00 | 0.28 | 0.00 | 97 | 1014.2 |
| 20260507023759 | 48 | 135 | 2.0 | 4.0 | 0.00 | 0.28 | 0.00 | 97 | 1014.2 |
| 20260507023659 | 48 | 135 | 2.0 | 4.0 | 0.00 | 0.28 | 0.00 | 97 | 1014.3 |
| 20260507023558 | 48 | 135 | 2.0 | 4.0 | 0.00 | 0.28 | 0.00 | 97 | 1014.3 |
| 20260507023459 | 48 | 135 | 2.0 | 4.0 | 0.00 | 0.28 | 0.00 | 97 | 1014.1 |
| 20260507023359 | 48 | 135 | 2.0 | 4.0 | 0.00 | 0.28 | 0.00 | 97 | 1014.4 |
| 20260507023259 | 48 | 135 | 2.0 | 4.0 | 0.00 | 0.28 | 0.00 | 97 | 1014.2 |
| 20260507023158 | 48 | 135 | 2.0 | 4.0 | 0.00 | 0.28 | 0.00 | 97 | 1014.0 |
| 20260507023059 | 48 | 135 | 2.0 | 4.0 | 0.00 | 0.28 | 0.00 | 97 | 1014.4 |
| 20260507023000 | 48 | 135 | 2.0 | 4.0 | 0.00 | 0.28 | 0.00 | 97 | 1014.2 |
| 20260507022859 | 48 | 135 | 2.0 | 4.0 | 0.00 | 0.28 | 0.00 | 97 | 1014.2 |
| 20260507022759 | 48 | 135 | 2.0 | 4.0 | 0.00 | 0.28 | 0.00 | 97 | 1014.1 |
| 20260507022659 | 48 | 135 | 2.0 | 4.0 | 0.00 | 0.28 | 0.00 | 97 | 1014.1 |
| 20260507022559 | 48 | 135 | 2.0 | 4.0 | 0.00 | 0.28 | 0.00 | 97 | 1014.1 |
| 20260507022459 | 48 | 135 | 2.0 | 4.0 | 0.00 | 0.28 | 0.00 | 97 | 1014.2 |
| 20260507022358 | 48 | 135 | 2.0 | 4.0 | 0.00 | 0.28 | 0.00 | 97 | 1014.1 |
| 20260507022259 | 48 | 135 | 2.0 | 4.0 | 0.00 | 0.28 | 0.00 | 97 | 1014.1 |
| 20260507022159 | 48 | 135 | 2.0 | 4.0 | 0.00 | 0.28 | 0.00 | 97 | 1014.1 |
| 20260507022059 | 48 | 135 | 2.0 | 4.0 | 0.00 | 0.28 | 0.00 | 97 | 1014.1 |
| 20260507021859 | 48 | 135 | 2.0 | 4.0 | 0.00 | 0.28 | 0.00 | 97 | 1014.3 |
| 20260507021759 | 48 | 135 | 2.0 | 4.0 | 0.00 | 0.28 | 0.00 | 97 | 1014.1 |
| 20260507021659 | 48 | 135 | 2.0 | 4.0 | 0.00 | 0.28 | 0.00 | 97 | 1014.0 |
| 20260507021558 | 48 | 135 | 2.0 | 4.0 | 0.00 | 0.28 | 0.00 | 97 | 1013.9 |
| 20260507021500 | 48 | 135 | 2.0 | 4.0 | 0.00 | 0.28 | 0.00 | 97 | 1013.9 |
| 20260507021359 | 48 | 135 | 2.0 | 4.0 | 0.00 | 0.28 | 0.00 | 97 | 1014.0 |
| 20260507021258 | 48 | 135 | 2.0 | 4.0 | 0.00 | 0.28 | 0.00 | 97 | 1014.0 |
| 20260507021159 | 48 | 135 | 2.0 | 4.0 | 0.00 | 0.28 | 0.00 | 97 | 1014.1 |
| 20260507021059 | 48 | 135 | 2.0 | 4.0 | 0.00 | 0.28 | 0.00 | 97 | 1014.0 |
| 20260507020959 | 48 | 135 | 2.0 | 4.0 | 0.00 | 0.28 | 0.00 | 97 | 1013.8 |
| 20260507020858 | 48 | 135 | 2.0 | 4.0 | 0.00 | 0.28 | 0.00 | 97 | 1014.0 |
| 20260507020759 | 48 | 135 | 2.0 | 4.0 | 0.00 | 0.28 | 0.00 | 97 | 1014.1 |
| 20260507020659 | 48 | 135 | 2.0 | 4.0 | 0.00 | 0.28 | 0.00 | 97 | 1013.8 |
| 20260507020559 | 48 | 135 | 2.0 | 4.0 | 0.00 | 0.28 | 0.00 | 97 | 1014.1 |
| 20260507020459 | 48 | 135 | 2.0 | 4.0 | 0.00 | 0.28 | 0.00 | 97 | 1014.0 |
| 20260507020258 | 48 | 135 | 2.0 | 4.0 | 0.00 | 0.28 | 0.00 | 97 | 1014.1 |
| 20260507020159 | 48 | 135 | 2.0 | 4.0 | 0.00 | 0.28 | 0.00 | 97 | 1014.1 |
| 20260507020059 | 48 | 135 | 2.0 | 4.0 | 0.00 | 0.28 | 0.00 | 97 | 1013.9 |
| 20260507020001 | 48 | 135 | 2.0 | 4.0 | 0.00 | 0.28 | 0.00 | 97 | 1013.8 |
| 20260507015859 | 48 | 135 | 2.0 | 4.0 | 0.00 | 0.28 | 0.00 | 97 | 1013.8 |
| 20260507015759 | 48 | 135 | 2.0 | 4.0 | 0.00 | 0.28 | 0.00 | 97 | 1014.1 |
| 20260507015659 | 48 | 135 | 2.0 | 4.0 | 0.00 | 0.28 | 0.00 | 97 | 1014.0 |
| 20260507015559 | 48 | 135 | 2.0 | 4.0 | 0.00 | 0.28 | 0.00 | 97 | 1014.0 |
| 20260507015459 | 48 | 135 | 2.0 | 4.0 | 0.00 | 0.28 | 0.00 | 97 | 1013.8 |
| 20260507015259 | 48 | 135 | 2.0 | 4.0 | 0.00 | 0.28 | 0.00 | 97 | 1013.8 |
| 20260507015059 | 48 | 135 | 2.0 | 4.0 | 0.00 | 0.28 | 0.00 | 97 | 1014.1 |
| 20260507014958 | 48 | 135 | 2.0 | 4.0 | 0.00 | 0.00 | 0.00 | 97 | 1014.0 |
| 20260507014858 | 48 | 135 | 2.0 | 4.0 | 0.00 | 0.00 | 0.00 | 97 | 1014.0 |
| 20260507014759 | 48 | 135 | 2.0 | 4.0 | 0.00 | 0.00 | 0.00 | 97 | 1014.0 |
| 20260507014359 | 48 | 135 | 2.0 | 4.0 | 0.00 | 0.00 | 0.00 | 97 | 1014.1 |
| 20260507014259 | 48 | 135 | 2.0 | 4.0 | 0.00 | 0.28 | 0.00 | 97 | 1013.8 |
| 20260507014159 | 48 | 135 | 2.0 | 4.0 | 0.00 | 0.28 | 0.00 | 97 | 1013.8 |
| 20260507013959 | 48 | 135 | 2.0 | 4.0 | 0.00 | 0.28 | 0.00 | 97 | 1014.0 |
| 20260507013858 | 48 | 135 | 2.0 | 4.0 | 0.00 | 0.28 | 0.00 | 97 | 1013.9 |
| 20260507013759 | 48 | 135 | 2.0 | 4.0 | 0.00 | 0.28 | 0.00 | 97 | 1013.8 |
| 20260507013659 | 48 | 135 | 2.0 | 4.0 | 0.00 | 0.28 | 0.00 | 97 | 1013.9 |
| 20260507013559 | 48 | 135 | 2.0 | 4.0 | 0.00 | 0.28 | 0.00 | 97 | 1013.8 |
| 20260507013458 | 48 | 135 | 2.0 | 4.0 | 0.00 | 0.28 | 0.00 | 97 | 1013.9 |
| 20260507013359 | 48 | 135 | 2.0 | 4.0 | 0.00 | 0.28 | 0.00 | 97 | 1013.9 |
| 20260507013259 | 48 | 135 | 2.0 | 4.0 | 0.00 | 0.28 | 0.00 | 97 | 1014.0 |
| 20260507013059 | 48 | 135 | 2.0 | 4.0 | 0.00 | 0.28 | 0.00 | 97 | 1013.8 |
| 20260507013001 | 48 | 135 | 2.0 | 4.0 | 0.00 | 0.28 | 0.00 | 97 | 1014.0 |
| 20260507012859 | 48 | 135 | 2.0 | 4.0 | 0.00 | 0.28 | 0.00 | 97 | 1013.7 |
| 20260507012758 | 48 | 135 | 2.0 | 4.0 | 0.00 | 0.28 | 0.00 | 97 | 1013.8 |
| 20260507012659 | 48 | 135 | 2.0 | 4.0 | 0.00 | 0.28 | 0.00 | 97 | 1014.0 |
| 20260507012559 | 48 | 135 | 2.0 | 4.0 | 0.00 | 0.28 | 0.00 | 97 | 1013.7 |
| 20260507012459 | 48 | 135 | 2.0 | 4.0 | 0.00 | 0.28 | 0.00 | 97 | 1013.7 |
| 20260507012400 | 48 | 135 | 2.0 | 4.0 | 0.00 | 0.28 | 0.00 | 97 | 1013.8 |
| 20260507012259 | 48 | 135 | 2.0 | 4.0 | 0.00 | 0.28 | 0.00 | 97 | 1013.8 |
| 20260507012159 | 48 | 135 | 2.0 | 4.0 | 0.00 | 0.28 | 0.00 | 97 | 1013.8 |
| 20260507012059 | 48 | 135 | 2.0 | 4.0 | 0.00 | 0.28 | 0.00 | 97 | 1013.7 |
| 20260507011958 | 48 | 135 | 2.0 | 4.0 | 0.00 | 0.28 | 0.00 | 97 | 1013.8 |
| 20260507011859 | 48 | 135 | 2.0 | 4.0 | 0.00 | 0.28 | 0.00 | 97 | 1013.7 |
| 20260507011759 | 48 | 135 | 2.0 | 4.0 | 0.00 | 0.28 | 0.00 | 97 | 1013.6 |
| 20260507011600 | 48 | 135 | 2.0 | 4.0 | 0.00 | 0.28 | 0.00 | 97 | 1013.8 |
| 20260507011500 | 48 | 135 | 2.0 | 4.0 | 0.00 | 0.28 | 0.00 | 97 | 1013.8 |
| 20260507011359 | 48 | 135 | 2.0 | 4.0 | 0.00 | 0.28 | 0.00 | 97 | 1013.6 |
| 20260507011259 | 48 | 135 | 2.0 | 4.0 | 0.00 | 0.28 | 0.00 | 97 | 1013.8 |
| 20260507011159 | 48 | 135 | 2.0 | 4.0 | 0.00 | 0.28 | 0.00 | 97 | 1013.7 |
| 20260507011059 | 48 | 135 | 2.0 | 4.0 | 0.00 | 0.28 | 0.00 | 97 | 1013.6 |
| 20260507010758 | 48 | 135 | 2.0 | 4.0 | 0.00 | 0.28 | 0.00 | 97 | 1013.7 |
| 20260507010659 | 48 | 135 | 2.0 | 4.0 | 0.00 | 0.28 | 0.00 | 97 | 1013.8 |
| 20260507010559 | 48 | 135 | 2.0 | 4.0 | 0.00 | 0.28 | 0.00 | 97 | 1013.7 |
| 20260507010459 | 48 | 135 | 2.0 | 4.0 | 0.00 | 0.28 | 0.00 | 97 | 1014.0 |
| 20260507010359 | 48 | 135 | 2.0 | 4.0 | 0.00 | 0.28 | 0.00 | 97 | 1013.8 |
| 20260507010259 | 48 | 135 | 2.0 | 4.0 | 0.00 | 0.28 | 0.00 | 97 | 1013.9 |
| 20260507010159 | 48 | 135 | 2.0 | 4.0 | 0.00 | 0.28 | 0.00 | 97 | 1013.7 |
| 20260507010059 | 48 | 135 | 2.0 | 4.0 | 0.00 | 0.28 | 0.00 | 97 | 1013.7 |
| 20260507005859 | 48 | 135 | 2.0 | 4.0 | 0.00 | 0.28 | 0.00 | 97 | 1013.7 |
| 20260507005759 | 48 | 135 | 2.0 | 4.0 | 0.00 | 0.28 | 0.00 | 97 | 1013.7 |
| 20260507005559 | 48 | 135 | 2.0 | 4.0 | 0.00 | 0.28 | 0.00 | 97 | 1013.8 |
| 20260507005459 | 48 | 135 | 2.0 | 4.0 | 0.00 | 0.28 | 0.00 | 97 | 1013.8 |
| 20260507005359 | 48 | 135 | 2.0 | 4.0 | 0.00 | 0.28 | 0.00 | 97 | 1013.5 |
| 20260507005159 | 48 | 135 | 2.0 | 4.0 | 0.00 | 0.28 | 0.00 | 97 | 1013.8 |
| 20260507005059 | 48 | 135 | 2.0 | 4.0 | 0.00 | 0.28 | 0.00 | 97 | 1013.5 |
| 20260507004959 | 48 | 135 | 2.0 | 4.0 | 0.00 | 0.28 | 0.00 | 97 | 1013.7 |
| 20260507004859 | 48 | 135 | 2.0 | 4.0 | 0.00 | 0.28 | 0.00 | 97 | 1013.7 |
| 20260507004658 | 48 | 135 | 2.0 | 4.0 | 0.00 | 0.28 | 0.00 | 97 | 1013.7 |
| 20260507004559 | 48 | 135 | 2.0 | 4.0 | 0.00 | 0.28 | 0.00 | 97 | 1013.5 |
| 20260507004501 | 48 | 135 | 2.0 | 4.0 | 0.00 | 0.28 | 0.00 | 97 | 1013.4 |
| 20260507004359 | 48 | 135 | 2.0 | 4.0 | 0.00 | 0.28 | 0.00 | 97 | 1013.4 |
| 20260507004159 | 48 | 135 | 2.0 | 4.0 | 0.00 | 0.28 | 0.00 | 97 | 1013.7 |
| 20260507004059 | 48 | 135 | 2.0 | 4.0 | 0.00 | 0.28 | 0.00 | 97 | 1013.6 |
| 20260507003859 | 48 | 135 | 2.0 | 4.0 | 0.00 | 0.28 | 0.00 | 97 | 1013.6 |
| 20260507003800 | 48 | 135 | 2.0 | 4.0 | 0.00 | 0.28 | 0.00 | 97 | 1013.4 |
| 20260507003659 | 48 | 135 | 2.0 | 4.0 | 0.00 | 0.28 | 0.00 | 97 | 1013.6 |
| 20260507003559 | 48 | 135 | 2.0 | 4.0 | 0.00 | 0.28 | 0.00 | 97 | 1013.5 |
| 20260507003459 | 48 | 135 | 2.0 | 4.0 | 0.00 | 0.28 | 0.00 | 97 | 1013.5 |
| 20260507003259 | 48 | 135 | 2.0 | 4.0 | 0.00 | 0.28 | 0.00 | 97 | 1013.4 |
| 20260507003159 | 48 | 135 | 2.0 | 4.0 | 0.00 | 0.28 | 0.00 | 97 | 1013.4 |
| 20260507003059 | 48 | 135 | 2.0 | 4.0 | 0.00 | 0.28 | 0.00 | 97 | 1013.5 |
| 20260507003000 | 48 | 135 | 2.0 | 4.0 | 0.00 | 0.28 | 0.00 | 97 | 1013.5 |
| 20260507002859 | 48 | 135 | 2.0 | 4.0 | 0.00 | 0.28 | 0.00 | 97 | 1013.4 |
| 20260507002558 | 48 | 135 | 2.0 | 4.0 | 0.00 | 0.28 | 0.00 | 97 | 1013.6 |
| 20260507002259 | 48 | 135 | 2.0 | 4.0 | 0.00 | 0.28 | 0.00 | 97 | 1013.5 |
| 20260507002059 | 48 | 135 | 2.0 | 4.0 | 0.00 | 0.28 | 0.00 | 97 | 1013.5 |
| 20260507001959 | 48 | 135 | 2.0 | 4.0 | 0.00 | 0.28 | 0.00 | 97 | 1013.5 |
| 20260507001859 | 48 | 135 | 2.0 | 4.0 | 0.00 | 0.28 | 0.00 | 97 | 1013.6 |
| 20260507001659 | 48 | 135 | 2.0 | 4.0 | 0.00 | 0.28 | 0.00 | 97 | 1013.6 |
| 20260507001559 | 48 | 135 | 2.0 | 4.0 | 0.00 | 0.28 | 0.00 | 97 | 1013.6 |
| 20260507001501 | 48 | 135 | 2.0 | 4.0 | 0.00 | 0.28 | 0.00 | 97 | 1013.4 |
| 20260507001359 | 48 | 135 | 2.0 | 4.0 | 0.00 | 0.28 | 0.00 | 97 | 1013.6 |
| 20260507001059 | 48 | 135 | 2.0 | 4.0 | 0.00 | 0.28 | 0.00 | 97 | 1013.5 |
| 20260507000959 | 48 | 135 | 2.0 | 4.0 | 0.00 | 0.28 | 0.00 | 97 | 1013.7 |
| 20260507000858 | 48 | 135 | 2.0 | 4.0 | 0.00 | 0.28 | 0.00 | 97 | 1013.8 |
| 20260507000659 | 48 | 135 | 2.0 | 4.0 | 0.00 | 0.28 | 0.00 | 97 | 1013.7 |
| 20260507000559 | 48 | 135 | 2.0 | 4.0 | 0.00 | 0.28 | 0.00 | 97 | 1013.7 |
| 20260507000459 | 48 | 135 | 2.0 | 4.0 | 0.00 | 0.28 | 0.00 | 97 | 1013.5 |
| 20260507000400 | 48 | 135 | 2.0 | 4.0 | 0.00 | 0.28 | 0.00 | 97 | 1013.8 |
| 20260507000259 | 48 | 135 | 2.0 | 4.0 | 0.00 | 0.28 | 0.00 | 97 | 1013.7 |
| 20260507000059 | 48 | 135 | 2.0 | 4.0 | 0.00 | 0.28 | 0.00 | 97 | 1013.7 |
| 20260506235859 | 48 | 135 | 2.0 | 4.0 | 0.00 | 0.28 | 0.00 | 97 | 1013.6 |
| 20260506235759 | 48 | 135 | 2.0 | 4.0 | 0.00 | 0.28 | 0.00 | 97 | 1013.6 |
| 20260506235659 | 48 | 135 | 2.0 | 4.0 | 0.00 | 0.28 | 0.00 | 97 | 1013.7 |
| 20260506235559 | 48 | 135 | 2.0 | 4.0 | 0.00 | 0.28 | 0.00 | 97 | 1013.5 |
| 20260506235459 | 48 | 135 | 2.0 | 4.0 | 0.00 | 0.28 | 0.00 | 97 | 1013.5 |
| 20260506235259 | 48 | 135 | 2.0 | 4.0 | 0.00 | 0.28 | 0.00 | 97 | 1013.7 |
| 20260506235059 | 48 | 135 | 2.0 | 4.0 | 0.00 | 0.28 | 0.00 | 97 | 1013.8 |
| 20260506234959 | 48 | 135 | 2.0 | 4.0 | 0.00 | 0.28 | 0.00 | 97 | 1013.6 |
| 20260506234859 | 48 | 135 | 2.0 | 4.0 | 0.00 | 0.28 | 0.00 | 97 | 1013.7 |
| 20260506234759 | 48 | 135 | 2.0 | 4.0 | 0.00 | 0.28 | 0.00 | 97 | 1013.7 |
| 20260506234659 | 48 | 135 | 2.0 | 4.0 | 0.00 | 0.28 | 0.00 | 97 | 1013.5 |
| 20260506234559 | 48 | 135 | 2.0 | 4.0 | 0.00 | 0.28 | 0.00 | 97 | 1013.5 |
| 20260506234501 | 48 | 135 | 2.0 | 4.0 | 0.00 | 0.28 | 0.00 | 97 | 1013.5 |
| 20260506234359 | 48 | 135 | 2.0 | 4.0 | 0.00 | 0.28 | 0.00 | 97 | 1013.7 |
| 20260506234259 | 48 | 135 | 2.0 | 4.0 | 0.00 | 0.28 | 0.00 | 97 | 1013.6 |
| 20260506234159 | 48 | 135 | 2.0 | 4.0 | 0.00 | 0.28 | 0.00 | 97 | 1013.5 |
| 20260506234059 | 48 | 135 | 2.0 | 4.0 | 0.00 | 0.28 | 0.00 | 97 | 1013.3 |
| 20260506233959 | 48 | 135 | 2.0 | 4.0 | 0.00 | 0.28 | 0.00 | 97 | 1013.5 |
| 20260506233859 | 48 | 135 | 2.0 | 4.0 | 0.00 | 0.28 | 0.00 | 97 | 1013.8 |
| 20260506233759 | 48 | 135 | 2.0 | 4.0 | 0.00 | 0.28 | 0.00 | 97 | 1013.4 |
| 20260506233659 | 48 | 135 | 2.0 | 4.0 | 0.00 | 0.28 | 0.00 | 97 | 1013.5 |
| 20260506233559 | 48 | 135 | 2.0 | 4.0 | 0.00 | 0.28 | 0.00 | 97 | 1013.4 |
| 20260506233300 | 48 | 135 | 2.0 | 4.0 | 0.00 | 0.28 | 0.00 | 97 | 1013.6 |
| 20260506233159 | 48 | 135 | 2.0 | 4.0 | 0.00 | 0.28 | 0.00 | 97 | 1013.6 |
| 20260506233059 | 48 | 135 | 2.0 | 4.0 | 0.00 | 0.28 | 0.00 | 97 | 1013.7 |
| 20260506233001 | 48 | 135 | 2.0 | 4.0 | 0.00 | 0.28 | 0.00 | 97 | 1013.7 |
| 20260506232759 | 48 | 135 | 2.0 | 4.0 | 0.00 | 0.28 | 0.00 | 97 | 1013.5 |
| 20260506232700 | 48 | 135 | 2.0 | 4.0 | 0.00 | 0.28 | 0.00 | 97 | 1013.7 |
| 20260506232559 | 48 | 135 | 2.0 | 4.0 | 0.00 | 0.28 | 0.00 | 97 | 1013.8 |
| 20260506232459 | 48 | 135 | 2.0 | 4.0 | 0.00 | 0.28 | 0.00 | 97 | 1013.7 |
| 20260506232359 | 48 | 135 | 2.0 | 4.0 | 0.00 | 0.28 | 0.00 | 97 | 1013.7 |
| 20260506232300 | 48 | 135 | 2.0 | 4.0 | 0.00 | 0.28 | 0.00 | 97 | 1013.6 |
| 20260506232159 | 48 | 135 | 2.0 | 4.0 | 0.00 | 0.28 | 0.00 | 97 | 1013.6 |
| 20260506231959 | 48 | 135 | 2.0 | 4.0 | 0.00 | 0.28 | 0.00 | 97 | 1013.7 |
| 20260506231859 | 48 | 135 | 2.0 | 4.0 | 0.00 | 0.28 | 0.00 | 97 | 1013.4 |
| 20260506231759 | 48 | 135 | 2.0 | 4.0 | 0.00 | 0.28 | 0.00 | 97 | 1013.6 |
| 20260506231659 | 48 | 135 | 2.0 | 4.0 | 0.00 | 0.28 | 0.00 | 97 | 1013.4 |
| 20260506231500 | 48 | 135 | 2.0 | 4.0 | 0.00 | 0.28 | 0.00 | 97 | 1013.6 |
| 20260506231359 | 48 | 135 | 2.0 | 4.0 | 0.00 | 0.28 | 0.00 | 97 | 1013.6 |
| 20260506231259 | 48 | 135 | 2.0 | 4.0 | 0.00 | 0.28 | 0.00 | 97 | 1013.6 |
| 20260506231159 | 48 | 135 | 2.0 | 4.0 | 0.00 | 0.28 | 0.00 | 97 | 1013.5 |
| 20260506231059 | 48 | 135 | 2.0 | 4.0 | 0.00 | 0.28 | 0.00 | 97 | 1013.6 |
| 20260506230959 | 48 | 135 | 2.0 | 4.0 | 0.00 | 0.28 | 0.00 | 97 | 1013.6 |
| 20260506230859 | 48 | 135 | 2.0 | 4.0 | 0.00 | 0.28 | 0.00 | 97 | 1013.7 |
| 20260506230759 | 48 | 135 | 2.0 | 4.0 | 0.00 | 0.28 | 0.00 | 97 | 1013.6 |
| 20260506230559 | 48 | 135 | 2.0 | 4.0 | 0.00 | 0.28 | 0.00 | 97 | 1013.7 |
| 20260506230459 | 48 | 135 | 2.0 | 4.0 | 0.00 | 0.28 | 0.00 | 97 | 1013.7 |
| 20260506230359 | 48 | 135 | 2.0 | 4.0 | 0.00 | 0.28 | 0.00 | 97 | 1013.6 |
| 20260506230300 | 48 | 135 | 2.0 | 4.0 | 0.00 | 0.28 | 0.00 | 97 | 1013.7 |
| 20260506230159 | 48 | 135 | 2.0 | 4.0 | 0.00 | 0.28 | 0.00 | 97 | 1013.7 |
| 20260506230059 | 48 | 135 | 2.0 | 4.0 | 0.00 | 0.28 | 0.00 | 97 | 1013.6 |
| 20260506230001 | 48 | 135 | 2.0 | 4.0 | 0.00 | 0.28 | 0.00 | 97 | 1013.6 |
| 20260506225859 | 48 | 135 | 2.0 | 4.0 | 0.00 | 0.28 | 0.00 | 97 | 1013.5 |
| 20260506225559 | 48 | 135 | 2.0 | 4.0 | 0.00 | 0.28 | 0.00 | 97 | 1013.7 |
| 20260506225459 | 48 | 135 | 2.0 | 4.0 | 0.00 | 0.28 | 0.00 | 97 | 1013.9 |
| 20260506225359 | 48 | 135 | 2.0 | 4.0 | 0.00 | 0.28 | 0.00 | 97 | 1013.8 |
| 20260506225259 | 48 | 135 | 2.0 | 4.0 | 0.00 | 0.28 | 0.00 | 97 | 1013.8 |
| 20260506225159 | 48 | 135 | 2.0 | 4.0 | 0.00 | 0.28 | 0.00 | 97 | 1013.8 |
| 20260506225059 | 48 | 135 | 2.0 | 4.0 | 0.00 | 0.28 | 0.00 | 97 | 1013.9 |
| 20260506224959 | 48 | 135 | 2.0 | 4.0 | 0.00 | 0.28 | 0.00 | 97 | 1013.8 |
| 20260506224859 | 48 | 135 | 2.0 | 4.0 | 0.00 | 0.28 | 0.00 | 97 | 1013.8 |
| 20260506224659 | 48 | 135 | 2.0 | 4.0 | 0.00 | 0.28 | 0.00 | 97 | 1014.1 |
| 20260506224600 | 48 | 135 | 2.0 | 4.0 | 0.00 | 0.28 | 0.00 | 97 | 1013.9 |
| 20260506224501 | 48 | 135 | 2.0 | 4.0 | 0.00 | 0.28 | 0.00 | 97 | 1013.9 |
| 20260506224359 | 48 | 135 | 2.0 | 4.0 | 0.00 | 0.28 | 0.00 | 97 | 1013.8 |
| 20260506224258 | 48 | 135 | 2.0 | 4.0 | 0.00 | 0.28 | 0.00 | 97 | 1014.0 |
| 20260506224159 | 48 | 135 | 2.0 | 4.0 | 0.00 | 0.28 | 0.00 | 97 | 1013.8 |
| 20260506224059 | 48 | 135 | 2.0 | 4.0 | 0.00 | 0.28 | 0.00 | 97 | 1013.8 |
| 20260506223959 | 48 | 135 | 2.0 | 4.0 | 0.00 | 0.28 | 0.00 | 97 | 1013.8 |
| 20260506223759 | 48 | 135 | 2.0 | 4.0 | 0.00 | 0.28 | 0.00 | 97 | 1013.9 |
| 20260506223700 | 48 | 135 | 2.0 | 4.0 | 0.00 | 0.28 | 0.00 | 97 | 1013.9 |
| 20260506223559 | 48 | 135 | 2.0 | 4.0 | 0.00 | 0.28 | 0.00 | 97 | 1013.7 |
| 20260506223459 | 48 | 135 | 2.0 | 4.0 | 0.00 | 0.28 | 0.00 | 97 | 1013.7 |
| 20260506223259 | 48 | 135 | 2.0 | 4.0 | 0.00 | 0.28 | 0.00 | 97 | 1013.9 |
| 20260506223059 | 48 | 135 | 2.0 | 4.0 | 0.00 | 0.28 | 0.00 | 97 | 1013.8 |
| 20260506223000 | 48 | 135 | 2.0 | 4.0 | 0.00 | 0.28 | 0.00 | 97 | 1013.9 |
| 20260506222900 | 48 | 135 | 2.0 | 4.0 | 0.00 | 0.28 | 0.00 | 97 | 1013.8 |
| 20260506222759 | 48 | 135 | 2.0 | 4.0 | 0.00 | 0.28 | 0.00 | 97 | 1014.0 |
| 20260506222659 | 48 | 135 | 2.0 | 4.0 | 0.00 | 0.28 | 0.00 | 97 | 1013.8 |
| 20260506222559 | 48 | 135 | 2.0 | 4.0 | 0.00 | 0.28 | 0.00 | 97 | 1013.8 |
| 20260506222359 | 48 | 135 | 2.0 | 4.0 | 0.00 | 0.28 | 0.00 | 97 | 1013.7 |
| 20260506222159 | 48 | 135 | 2.0 | 4.0 | 0.00 | 0.28 | 0.00 | 97 | 1013.7 |
| 20260506222059 | 48 | 135 | 2.0 | 4.0 | 0.00 | 0.28 | 0.00 | 97 | 1013.8 |
| 20260506221959 | 48 | 135 | 2.0 | 4.0 | 0.00 | 0.28 | 0.00 | 97 | 1013.7 |
| 20260506221859 | 48 | 135 | 2.0 | 4.0 | 0.00 | 0.28 | 0.00 | 97 | 1013.7 |
| 20260506221759 | 48 | 135 | 2.0 | 4.0 | 0.00 | 0.28 | 0.00 | 97 | 1013.7 |
| 20260506221700 | 48 | 135 | 2.0 | 4.0 | 0.00 | 0.28 | 0.00 | 97 | 1013.8 |
| 20260506221559 | 48 | 135 | 2.0 | 4.0 | 0.00 | 0.28 | 0.00 | 97 | 1013.8 |
| 20260506221501 | 48 | 135 | 2.0 | 4.0 | 0.00 | 0.28 | 0.00 | 97 | 1013.7 |
| 20260506221359 | 48 | 135 | 2.0 | 4.0 | 0.00 | 0.28 | 0.00 | 97 | 1013.7 |
| 20260506221259 | 48 | 135 | 2.0 | 4.0 | 0.00 | 0.28 | 0.00 | 97 | 1013.5 |
| 20260506221159 | 48 | 135 | 2.0 | 4.0 | 0.00 | 0.28 | 0.00 | 97 | 1013.7 |
| 20260506221059 | 48 | 135 | 2.0 | 4.0 | 0.00 | 0.28 | 0.00 | 97 | 1013.5 |
| 20260506220959 | 48 | 135 | 2.0 | 4.0 | 0.00 | 0.28 | 0.00 | 97 | 1013.5 |
| 20260506220859 | 48 | 135 | 2.0 | 4.0 | 0.00 | 0.28 | 0.00 | 97 | 1013.6 |
| 20260506220759 | 48 | 135 | 2.0 | 4.0 | 0.00 | 0.28 | 0.00 | 97 | 1013.5 |
| 20260506220659 | 48 | 135 | 2.0 | 4.0 | 0.00 | 0.28 | 0.00 | 97 | 1013.8 |
| 20260506220559 | 48 | 135 | 2.0 | 4.0 | 0.00 | 0.28 | 0.00 | 97 | 1013.5 |
| 20260506220459 | 48 | 135 | 2.0 | 4.0 | 0.00 | 0.28 | 0.00 | 97 | 1013.4 |
| 20260506220359 | 48 | 135 | 2.0 | 4.0 | 0.00 | 0.28 | 0.00 | 97 | 1013.7 |
| 20260506220259 | 48 | 135 | 2.0 | 4.0 | 0.00 | 0.28 | 0.00 | 97 | 1013.6 |
| 20260506220159 | 48 | 135 | 2.0 | 4.0 | 0.00 | 0.28 | 0.00 | 97 | 1013.6 |
| 20260506220059 | 48 | 135 | 2.0 | 4.0 | 0.00 | 0.28 | 0.00 | 97 | 1013.5 |
| 20260506220001 | 48 | 135 | 2.0 | 4.0 | 0.00 | 0.28 | 0.00 | 97 | 1013.3 |
| 20260506215900 | 48 | 135 | 2.0 | 4.0 | 0.00 | 0.28 | 0.28 | 97 | 1013.7 |
| 20260506215759 | 48 | 135 | 2.0 | 4.0 | 0.00 | 0.28 | 0.28 | 97 | 1013.5 |
| 20260506215659 | 48 | 135 | 2.0 | 4.0 | 0.00 | 0.28 | 0.28 | 97 | 1013.5 |
| 20260506215559 | 48 | 135 | 2.0 | 4.0 | 0.00 | 0.28 | 0.28 | 97 | 1013.5 |
| 20260506215459 | 48 | 135 | 2.0 | 4.0 | 0.00 | 0.28 | 0.28 | 97 | 1013.5 |
| 20260506215359 | 48 | 135 | 2.0 | 4.0 | 0.00 | 0.28 | 0.28 | 97 | 1013.4 |
| 20260506215259 | 48 | 135 | 2.0 | 4.0 | 0.00 | 0.28 | 0.28 | 97 | 1013.3 |
| 20260506215059 | 48 | 135 | 2.0 | 4.0 | 0.00 | 0.28 | 0.28 | 97 | 1013.3 |
| 20260506214959 | 48 | 135 | 2.0 | 4.0 | 0.00 | 0.28 | 0.28 | 97 | 1013.3 |
| 20260506214859 | 48 | 135 | 2.0 | 4.0 | 0.00 | 0.28 | 0.28 | 97 | 1013.4 |
| 20260506214759 | 48 | 135 | 2.0 | 4.0 | 0.00 | 0.28 | 0.28 | 97 | 1013.4 |
| 20260506214500 | 48 | 135 | 2.0 | 4.0 | 0.00 | 0.28 | 0.28 | 97 | 1013.6 |
| 20260506214400 | 48 | 135 | 2.0 | 4.0 | 0.00 | 0.28 | 0.28 | 97 | 1013.4 |
| 20260506214059 | 48 | 135 | 2.0 | 4.0 | 0.00 | 0.28 | 0.28 | 97 | 1013.5 |
| 20260506213959 | 48 | 135 | 2.0 | 4.0 | 0.00 | 0.28 | 0.28 | 97 | 1013.4 |
| 20260506213859 | 48 | 135 | 2.0 | 4.0 | 0.00 | 0.28 | 0.28 | 97 | 1013.4 |
| 20260506213659 | 48 | 135 | 2.0 | 4.0 | 0.00 | 0.28 | 0.28 | 97 | 1013.3 |
| 20260506213559 | 48 | 135 | 2.0 | 4.0 | 0.00 | 0.28 | 0.28 | 97 | 1013.3 |
| 20260506213459 | 48 | 135 | 2.0 | 4.0 | 0.00 | 0.28 | 0.28 | 97 | 1013.3 |
| 20260506213359 | 48 | 135 | 2.0 | 4.0 | 0.00 | 0.28 | 0.28 | 97 | 1013.4 |
| 20260506213259 | 48 | 135 | 2.0 | 4.0 | 0.00 | 0.28 | 0.28 | 97 | 1013.4 |
| 20260506213159 | 48 | 135 | 2.0 | 4.0 | 0.00 | 0.28 | 0.28 | 97 | 1013.4 |
| 20260506213059 | 48 | 135 | 2.0 | 4.0 | 0.00 | 0.28 | 0.28 | 97 | 1013.4 |
| 20260506213000 | 48 | 135 | 2.0 | 4.0 | 0.00 | 0.28 | 0.28 | 97 | 1013.4 |
| 20260506212900 | 48 | 135 | 2.0 | 4.0 | 0.00 | 0.28 | 0.28 | 97 | 1013.3 |
| 20260506212759 | 48 | 135 | 2.0 | 4.0 | 0.00 | 0.28 | 0.28 | 97 | 1013.3 |
| 20260506212659 | 48 | 135 | 2.0 | 4.0 | 0.00 | 0.28 | 0.28 | 97 | 1013.3 |
| 20260506212559 | 48 | 135 | 2.0 | 4.0 | 0.00 | 0.28 | 0.28 | 97 | 1013.3 |
| 20260506212459 | 48 | 138 | 2.0 | 4.0 | 0.00 | 0.28 | 0.28 | 97 | 1013.3 |
| 20260506212400 | 48 | 142 | 2.0 | 4.0 | 0.00 | 0.28 | 0.28 | 97 | 1013.3 |
| 20260506212259 | 48 | 147 | 2.0 | 4.0 | 0.00 | 0.28 | 0.28 | 97 | 1013.3 |
| 20260506212159 | 48 | 150 | 2.0 | 4.0 | 0.00 | 0.28 | 0.28 | 97 | 1013.3 |
| 20260506212059 | 48 | 155 | 2.0 | 4.0 | 0.00 | 0.28 | 0.28 | 97 | 1013.3 |
| 20260506211959 | 48 | 159 | 2.0 | 4.0 | 0.00 | 0.28 | 0.28 | 97 | 1013.2 |
| 20260506211900 | 48 | 165 | 2.0 | 4.0 | 0.00 | 0.28 | 0.28 | 97 | 1013.2 |
| 20260506211759 | 48 | 169 | 2.0 | 4.0 | 0.00 | 0.28 | 0.28 | 97 | 1013.3 |
| 20260506211559 | 48 | 178 | 2.0 | 4.0 | 0.00 | 0.28 | 0.28 | 97 | 1013.2 |
| 20260506211501 | 48 | 176 | 2.0 | 4.0 | 0.00 | 0.28 | 0.28 | 97 | 1013.1 |
| 20260506211259 | 48 | 173 | 2.0 | 4.0 | 0.00 | 0.28 | 0.28 | 97 | 1013.2 |
| 20260506211159 | 48 | 171 | 2.0 | 4.0 | 0.00 | 0.28 | 0.28 | 97 | 1013.2 |
| 20260506211059 | 48 | 168 | 2.0 | 4.0 | 0.00 | 0.28 | 0.28 | 97 | 1013.1 |
| 20260506210959 | 48 | 165 | 2.0 | 4.0 | 0.00 | 0.28 | 0.28 | 97 | 1013.0 |
| 20260506210759 | 48 | 156 | 1.0 | 4.0 | 0.00 | 0.28 | 0.28 | 97 | 1013.3 |
| 20260506210659 | 48 | 151 | 2.0 | 6.0 | 0.00 | 0.28 | 0.28 | 97 | 1013.2 |
| 20260506210459 | 48 | 146 | 2.0 | 6.0 | 0.00 | 0.28 | 0.28 | 97 | 1013.1 |
| 20260506210359 | 48 | 143 | 2.0 | 6.0 | 0.00 | 0.28 | 0.28 | 97 | 1013.1 |
| 20260506210259 | 48 | 141 | 2.0 | 6.0 | 0.00 | 0.28 | 0.28 | 97 | 1013.2 |
| 20260506210159 | 48 | 139 | 2.0 | 6.0 | 0.00 | 0.28 | 0.28 | 97 | 1013.1 |
| 20260506210100 | 48 | 137 | 1.0 | 6.0 | 0.00 | 0.28 | 0.28 | 97 | 1013.2 |
| 20260506210001 | 48 | 138 | 2.0 | 6.0 | 0.00 | 0.28 | 0.28 | 97 | 1013.1 |
| 20260506205859 | 48 | 142 | 2.0 | 6.0 | 0.00 | 0.28 | 0.28 | 97 | 1013.1 |
| 20260506205759 | 48 | 145 | 2.0 | 6.0 | 0.00 | 0.28 | 0.28 | 97 | 1013.0 |
| 20260506205659 | 48 | 150 | 1.0 | 4.0 | 0.00 | 0.28 | 0.28 | 97 | 1013.0 |
| 20260506205559 | 48 | 148 | 1.0 | 6.0 | 0.00 | 0.28 | 0.28 | 97 | 1012.9 |
| 20260506205500 | 48 | 149 | 1.0 | 6.0 | 0.00 | 0.28 | 0.28 | 97 | 1013.1 |
| 20260506205259 | 48 | 147 | 1.0 | 6.0 | 0.00 | 0.28 | 0.28 | 97 | 1013.2 |
| 20260506205059 | 48 | 154 | 1.0 | 6.0 | 0.00 | 0.28 | 0.28 | 97 | 1013.2 |
| 20260506204959 | 48 | 157 | 2.0 | 6.0 | 0.00 | 0.28 | 0.28 | 97 | 1013.2 |
| 20260506204900 | 48 | 156 | 0.0 | 6.0 | 0.00 | 0.28 | 0.28 | 97 | 1013.2 |
| 20260506204659 | 48 | 150 | 2.0 | 7.0 | 0.00 | 0.28 | 0.28 | 97 | 1013.1 |
| 20260506204559 | 48 | 153 | 4.0 | 7.0 | 0.00 | 0.28 | 0.28 | 97 | 1013.2 |
| 20260506204501 | 48 | 150 | 1.0 | 7.0 | 0.00 | 0.28 | 0.28 | 97 | 1013.1 |
| 20260506204359 | 48 | 148 | 1.0 | 7.0 | 0.00 | 0.28 | 0.28 | 97 | 1013.1 |
| 20260506204259 | 48 | 146 | 2.0 | 7.0 | 0.00 | 0.28 | 0.28 | 97 | 1013.1 |
| 20260506204159 | 48 | 146 | 1.0 | 7.0 | 0.00 | 0.28 | 0.28 | 97 | 1013.1 |
| 20260506204100 | 48 | 143 | 2.0 | 7.0 | 0.00 | 0.28 | 0.28 | 97 | 1013.2 |
| 20260506203959 | 48 | 139 | 2.0 | 7.0 | 0.00 | 0.28 | 0.28 | 97 | 1013.2 |
| 20260506203859 | 48 | 140 | 0.0 | 7.0 | 0.01 | 0.28 | 0.28 | 97 | 1013.4 |
| 20260506203659 | 48 | 145 | 2.0 | 6.0 | 0.01 | 0.28 | 0.28 | 97 | 1013.3 |
| 20260506203559 | 48 | 136 | 3.0 | 6.0 | 0.01 | 0.28 | 0.28 | 97 | 1013.1 |
| 20260506203500 | 48 | 133 | 2.0 | 6.0 | 0.01 | 0.28 | 0.28 | 97 | 1013.1 |
| 20260506203259 | 48 | 144 | 2.0 | 6.0 | 0.01 | 0.28 | 0.28 | 97 | 1013.0 |
| 20260506203159 | 48 | 144 | 2.0 | 8.0 | 0.01 | 0.28 | 0.28 | 97 | 1012.9 |
| 20260506203059 | 48 | 142 | 2.0 | 8.0 | 0.01 | 0.28 | 0.28 | 97 | 1012.9 |
| 20260506203001 | 48 | 145 | 2.0 | 8.0 | 0.01 | 0.28 | 0.28 | 97 | 1013.1 |
| 20260506202759 | 48 | 140 | 0.0 | 8.0 | 0.01 | 0.28 | 0.28 | 97 | 1013.2 |
| 20260506202659 | 48 | 141 | 2.0 | 8.0 | 0.01 | 0.28 | 0.28 | 97 | 1013.1 |
| 20260506202559 | 48 | 142 | 2.0 | 8.0 | 0.01 | 0.28 | 0.28 | 97 | 1013.2 |
| 20260506202459 | 48 | 145 | 2.0 | 8.0 | 0.01 | 0.28 | 0.28 | 97 | 1012.8 |
| 20260506202359 | 48 | 143 | 2.0 | 8.0 | 0.01 | 0.28 | 0.28 | 97 | 1013.0 |
| 20260506202159 | 48 | 137 | 4.0 | 8.0 | 0.01 | 0.28 | 0.28 | 97 | 1013.2 |
| 20260506202059 | 48 | 133 | 2.0 | 8.0 | 0.01 | 0.28 | 0.28 | 97 | 1013.2 |
| 20260506202000 | 48 | 125 | 2.0 | 8.0 | 0.01 | 0.28 | 0.28 | 97 | 1013.2 |
| 20260506201859 | 48 | 119 | 0.0 | 8.0 | 0.01 | 0.28 | 0.28 | 98 | 1013.1 |
| 20260506201759 | 48 | 118 | 2.0 | 8.0 | 0.01 | 0.28 | 0.28 | 97 | 1013.0 |
| 20260506201659 | 48 | 115 | 2.0 | 8.0 | 0.01 | 0.28 | 0.28 | 97 | 1012.9 |
| 20260506201600 | 48 | 122 | 1.0 | 9.0 | 0.01 | 0.28 | 0.28 | 97 | 1012.9 |
| 20260506201501 | 48 | 119 | 0.0 | 9.0 | 0.01 | 0.28 | 0.28 | 97 | 1013.0 |
| 20260506201359 | 48 | 117 | 0.0 | 9.0 | 0.01 | 0.28 | 0.28 | 97 | 1012.9 |
| 20260506201259 | 48 | 119 | 2.0 | 9.0 | 0.01 | 0.28 | 0.28 | 97 | 1013.0 |
| 20260506201159 | 48 | 121 | 2.0 | 9.0 | 0.01 | 0.28 | 0.28 | 97 | 1013.1 |
| 20260506201059 | 48 | 123 | 2.0 | 9.0 | 0.01 | 0.28 | 0.28 | 97 | 1013.0 |
| 20260506200959 | 48 | 124 | 1.0 | 9.0 | 0.01 | 0.28 | 0.28 | 97 | 1013.1 |
| 20260506200859 | 48 | 127 | 1.0 | 9.0 | 0.01 | 0.28 | 0.28 | 97 | 1013.1 |
| 20260506200800 | 48 | 127 | 1.0 | 9.0 | 0.01 | 0.28 | 0.28 | 98 | 1013.1 |
| 20260506200659 | 48 | 124 | 4.0 | 9.0 | 0.01 | 0.28 | 0.28 | 97 | 1012.8 |
| 20260506200559 | 48 | 120 | 2.0 | 4.0 | 0.01 | 0.28 | 0.28 | 97 | 1013.0 |
| 20260506200459 | 48 | 124 | 2.0 | 4.0 | 0.01 | 0.28 | 0.28 | 98 | 1012.8 |
| 20260506200359 | 48 | 126 | 2.0 | 4.0 | 0.01 | 0.28 | 0.28 | 97 | 1012.8 |
| 20260506200300 | 48 | 130 | 1.0 | 6.0 | 0.01 | 0.28 | 0.28 | 97 | 1012.9 |
| 20260506200200 | 48 | 135 | 0.0 | 7.0 | 0.01 | 0.28 | 0.28 | 97 | 1012.8 |
| 20260506195900 | 48 | 151 | 0.0 | 7.0 | 0.01 | 0.28 | 0.28 | 97 | 1013.0 |
| 20260506195759 | 48 | 155 | 0.0 | 7.0 | 0.01 | 0.28 | 0.28 | 97 | 1012.8 |
| 20260506195659 | 48 | 152 | 0.0 | 7.0 | 0.01 | 0.28 | 0.28 | 97 | 1012.8 |
| 20260506195559 | 48 | 147 | 0.0 | 7.0 | 0.01 | 0.28 | 0.28 | 97 | 1012.7 |
| 20260506195459 | 48 | 148 | 2.0 | 7.0 | 0.01 | 0.28 | 0.28 | 97 | 1012.6 |
| 20260506195359 | 48 | 148 | 3.0 | 7.0 | 0.02 | 0.28 | 0.28 | 97 | 1012.6 |
| 20260506195300 | 48 | 150 | 2.0 | 7.0 | 0.02 | 0.28 | 0.28 | 97 | 1012.8 |
| 20260506195159 | 48 | 149 | 4.0 | 7.0 | 0.02 | 0.28 | 0.28 | 97 | 1012.8 |
| 20260506195059 | 48 | 147 | 4.0 | 6.0 | 0.02 | 0.28 | 0.28 | 97 | 1012.6 |
| 20260506194959 | 48 | 145 | 1.0 | 6.0 | 0.02 | 0.28 | 0.28 | 98 | 1012.7 |
| 20260506194859 | 48 | 144 | 2.0 | 6.0 | 0.02 | 0.28 | 0.28 | 97 | 1013.0 |
| 20260506194501 | 48 | 146 | 1.0 | 9.0 | 0.02 | 0.28 | 0.28 | 97 | 1012.9 |
| 20260506194400 | 48 | 144 | 2.0 | 9.0 | 0.02 | 0.28 | 0.28 | 97 | 1012.9 |
| 20260506194259 | 48 | 145 | 1.0 | 9.0 | 0.02 | 0.28 | 0.28 | 97 | 1012.9 |
| 20260506194159 | 48 | 145 | 2.0 | 9.0 | 0.04 | 0.28 | 0.28 | 97 | 1012.8 |
| 20260506194059 | 48 | 142 | 2.0 | 9.0 | 0.04 | 0.28 | 0.28 | 97 | 1012.8 |
| 20260506193959 | 48 | 141 | 2.0 | 9.0 | 0.04 | 0.28 | 0.28 | 97 | 1012.8 |
| 20260506193900 | 48 | 139 | 1.0 | 9.0 | 0.02 | 0.27 | 0.27 | 97 | 1012.8 |
| 20260506193659 | 48 | 139 | 3.0 | 9.0 | 0.02 | 0.27 | 0.27 | 97 | 1012.8 |
| 20260506193559 | 48 | 144 | 4.0 | 9.0 | 0.02 | 0.27 | 0.27 | 97 | 1012.7 |
| 20260506193459 | 48 | 145 | 2.0 | 8.0 | 0.04 | 0.27 | 0.27 | 97 | 1012.8 |
| 20260506193359 | 48 | 148 | 4.0 | 8.0 | 0.04 | 0.27 | 0.27 | 97 | 1012.5 |
| 20260506193300 | 48 | 147 | 2.0 | 7.0 | 0.04 | 0.27 | 0.27 | 97 | 1012.5 |
| 20260506193059 | 48 | 148 | 1.0 | 7.0 | 0.04 | 0.27 | 0.27 | 97 | 1012.6 |
| 20260506192900 | 48 | 151 | 1.0 | 7.0 | 0.04 | 0.27 | 0.27 | 97 | 1012.6 |
| 20260506192759 | 48 | 156 | 3.0 | 7.0 | 0.04 | 0.27 | 0.27 | 97 | 1012.5 |
| 20260506192700 | 48 | 159 | 4.0 | 7.0 | 0.04 | 0.27 | 0.27 | 97 | 1012.4 |
| 20260506192559 | 48 | 159 | 4.0 | 7.0 | 0.04 | 0.27 | 0.27 | 97 | 1012.6 |
| 20260506192459 | 48 | 163 | 2.0 | 7.0 | 0.05 | 0.27 | 0.27 | 97 | 1012.5 |
| 20260506192359 | 48 | 166 | 2.0 | 7.0 | 0.05 | 0.27 | 0.27 | 97 | 1012.4 |
| 20260506192259 | 48 | 165 | 1.0 | 7.0 | 0.05 | 0.27 | 0.27 | 97 | 1012.8 |
| 20260506192200 | 48 | 166 | 4.0 | 7.0 | 0.05 | 0.27 | 0.27 | 97 | 1012.5 |
| 20260506192059 | 48 | 165 | 2.0 | 7.0 | 0.05 | 0.27 | 0.27 | 97 | 1012.4 |
| 20260506191959 | 48 | 166 | 4.0 | 7.0 | 0.05 | 0.27 | 0.27 | 97 | 1012.4 |
| 20260506191859 | 48 | 166 | 4.0 | 7.0 | 0.05 | 0.27 | 0.27 | 97 | 1012.6 |
| 20260506191800 | 48 | 164 | 2.0 | 7.0 | 0.05 | 0.27 | 0.27 | 97 | 1012.4 |
| 20260506191659 | 48 | 161 | 2.0 | 7.0 | 0.05 | 0.27 | 0.27 | 97 | 1012.4 |
| 20260506191559 | 48 | 156 | 2.0 | 7.0 | 0.05 | 0.27 | 0.27 | 97 | 1012.7 |
| 20260506191501 | 48 | 150 | 2.0 | 7.0 | 0.05 | 0.27 | 0.27 | 97 | 1012.3 |
| 20260506191359 | 48 | 143 | 2.0 | 4.0 | 0.05 | 0.27 | 0.27 | 97 | 1012.3 |
| 20260506191259 | 48 | 142 | 2.0 | 4.0 | 0.05 | 0.27 | 0.27 | 97 | 1012.3 |
| 20260506191200 | 48 | 142 | 2.0 | 4.0 | 0.05 | 0.27 | 0.27 | 97 | 1012.2 |
| 20260506191100 | 48 | 141 | 2.0 | 6.0 | 0.06 | 0.27 | 0.27 | 97 | 1012.2 |
| 20260506190959 | 48 | 138 | 2.0 | 6.0 | 0.06 | 0.27 | 0.27 | 97 | 1012.3 |
| 20260506190859 | 48 | 136 | 2.0 | 6.0 | 0.06 | 0.27 | 0.27 | 97 | 1012.0 |
| 20260506190759 | 48 | 140 | 2.0 | 8.0 | 0.06 | 0.27 | 0.27 | 97 | 1012.2 |
| 20260506190700 | 48 | 146 | 0.0 | 8.0 | 0.06 | 0.27 | 0.27 | 97 | 1012.3 |
| 20260506190559 | 48 | 153 | 2.0 | 8.0 | 0.06 | 0.27 | 0.27 | 97 | 1012.0 |
| 20260506190459 | 48 | 159 | 2.0 | 8.0 | 0.06 | 0.27 | 0.27 | 97 | 1012.3 |
| 20260506190359 | 48 | 164 | 2.0 | 8.0 | 0.06 | 0.27 | 0.27 | 97 | 1012.2 |
| 20260506190300 | 48 | 162 | 2.0 | 8.0 | 0.06 | 0.27 | 0.27 | 97 | 1012.2 |
| 20260506190200 | 49 | 164 | 2.0 | 8.0 | 0.07 | 0.27 | 0.27 | 97 | 1012.1 |
| 20260506190059 | 48 | 167 | 1.0 | 8.0 | 0.07 | 0.27 | 0.27 | 97 | 1012.3 |
| 20260506190001 | 49 | 168 | 0.0 | 8.0 | 0.07 | 0.27 | 0.27 | 97 | 1012.2 |
| 20260506185859 | 49 | 168 | 0.0 | 8.0 | 0.07 | 0.27 | 0.27 | 97 | 1011.9 |
| 20260506185759 | 49 | 166 | 3.0 | 8.0 | 0.07 | 0.27 | 0.27 | 97 | 1012.1 |
| 20260506185700 | 49 | 159 | 3.0 | 8.0 | 0.07 | 0.27 | 0.27 | 97 | 1012.2 |
| 20260506185600 | 49 | 152 | 3.0 | 8.0 | 0.07 | 0.27 | 0.27 | 97 | 1012.3 |
| 20260506185359 | 49 | 139 | 2.0 | 8.0 | 0.06 | 0.26 | 0.26 | 97 | 1012.1 |
| 20260506185259 | 49 | 143 | 1.0 | 8.0 | 0.06 | 0.26 | 0.26 | 97 | 1012.0 |
| 20260506185200 | 49 | 140 | 1.0 | 8.0 | 0.06 | 0.26 | 0.26 | 97 | 1012.2 |
| 20260506185059 | 49 | 131 | 1.0 | 8.0 | 0.06 | 0.26 | 0.26 | 97 | 1012.2 |
| 20260506184959 | 49 | 122 | 1.0 | 8.0 | 0.06 | 0.26 | 0.26 | 97 | 1012.0 |
| 20260506184859 | 49 | 114 | 2.0 | 8.0 | 0.06 | 0.26 | 0.26 | 97 | 1012.1 |
| 20260506184759 | 49 | 106 | 4.0 | 8.0 | 0.06 | 0.26 | 0.26 | 97 | 1012.1 |
| 20260506184501 | 49 | 92 | 1.0 | 6.0 | 0.06 | 0.26 | 0.26 | 97 | 1012.1 |
| 20260506184359 | 49 | 90 | 1.0 | 6.0 | 0.06 | 0.26 | 0.26 | 97 | 1011.9 |
| 20260506184259 | 49 | 90 | 0.0 | 6.0 | 0.07 | 0.26 | 0.26 | 97 | 1011.9 |
| 20260506184200 | 49 | 90 | 2.0 | 6.0 | 0.06 | 0.25 | 0.25 | 97 | 1012.1 |
| 20260506184000 | 49 | 90 | 2.0 | 6.0 | 0.06 | 0.25 | 0.25 | 97 | 1011.9 |
| 20260506183859 | 49 | 90 | 2.0 | 6.0 | 0.06 | 0.25 | 0.25 | 97 | 1012.0 |
| 20260506183759 | 49 | 91 | 2.0 | 6.0 | 0.06 | 0.25 | 0.25 | 97 | 1012.0 |
| 20260506183700 | 49 | 92 | 2.0 | 6.0 | 0.06 | 0.25 | 0.25 | 97 | 1011.8 |
| 20260506183600 | 49 | 94 | 2.0 | 6.0 | 0.06 | 0.25 | 0.25 | 97 | 1011.8 |
| 20260506183459 | 49 | 100 | 1.0 | 6.0 | 0.05 | 0.24 | 0.24 | 97 | 1011.9 |
| 20260506183359 | 49 | 105 | 1.0 | 6.0 | 0.05 | 0.24 | 0.24 | 97 | 1011.9 |
| 20260506183259 | 49 | 107 | 1.0 | 6.0 | 0.05 | 0.24 | 0.24 | 97 | 1011.9 |
| 20260506183200 | 49 | 110 | 1.0 | 6.0 | 0.06 | 0.24 | 0.24 | 97 | 1011.8 |
| 20260506183100 | 49 | 115 | 1.0 | 6.0 | 0.06 | 0.24 | 0.24 | 97 | 1011.8 |
| 20260506183001 | 49 | 121 | 1.0 | 6.0 | 0.06 | 0.24 | 0.24 | 97 | 1011.6 |
| 20260506182859 | 49 | 131 | 2.0 | 6.0 | 0.06 | 0.24 | 0.24 | 97 | 1011.8 |
| 20260506182759 | 49 | 141 | 0.0 | 4.0 | 0.06 | 0.24 | 0.24 | 97 | 1011.8 |
| 20260506182700 | 49 | 146 | 1.0 | 4.0 | 0.06 | 0.24 | 0.24 | 97 | 1011.8 |
| 20260506182600 | 49 | 149 | 2.0 | 4.0 | 0.06 | 0.24 | 0.24 | 97 | 1011.6 |
| 20260506182459 | 49 | 125 | 2.0 | 4.0 | 0.05 | 0.22 | 0.22 | 97 | 1011.8 |
| 20260506182359 | 49 | 112 | 0.0 | 4.0 | 0.05 | 0.22 | 0.22 | 97 | 1011.7 |
| 20260506182259 | 49 | 112 | 0.0 | 4.0 | 0.05 | 0.22 | 0.22 | 97 | 1011.7 |
| 20260506182159 | 49 | 112 | 0.0 | 4.0 | 0.05 | 0.22 | 0.22 | 97 | 1011.8 |
| 20260506182100 | 49 | 117 | 0.0 | 4.0 | 0.05 | 0.22 | 0.22 | 97 | 1011.7 |
| 20260506182000 | 49 | 122 | 0.0 | 4.0 | 0.06 | 0.22 | 0.22 | 97 | 1011.7 |
| 20260506181859 | 49 | 127 | 0.0 | 4.0 | 0.06 | 0.22 | 0.22 | 97 | 1011.6 |
| 20260506181759 | 49 | 128 | 0.0 | 4.0 | 0.06 | 0.22 | 0.22 | 97 | 1011.6 |
| 20260506181659 | 49 | 127 | 0.0 | 4.0 | 0.06 | 0.22 | 0.22 | 97 | 1011.6 |
| 20260506181600 | 49 | 129 | 2.0 | 4.0 | 0.06 | 0.22 | 0.22 | 97 | 1011.5 |
| 20260506181501 | 49 | 134 | 0.0 | 2.0 | 0.06 | 0.22 | 0.22 | 97 | 1011.4 |
| 20260506181300 | 49 | 136 | 0.0 | 2.0 | 0.06 | 0.22 | 0.22 | 97 | 1011.8 |
| 20260506181200 | 49 | 144 | 0.0 | 2.0 | 0.06 | 0.22 | 0.22 | 97 | 1011.3 |
| 20260506181059 | 49 | 147 | 1.0 | 2.0 | 0.05 | 0.21 | 0.21 | 97 | 1011.7 |
| 20260506180859 | 49 | 147 | 1.0 | 2.0 | 0.05 | 0.21 | 0.21 | 97 | 1011.6 |
| 20260506180759 | 49 | 151 | 1.0 | 2.0 | 0.05 | 0.21 | 0.21 | 97 | 1011.6 |
| 20260506180659 | 50 | 154 | 0.0 | 2.0 | 0.06 | 0.21 | 0.21 | 97 | 1011.3 |
| 20260506180600 | 49 | 152 | 0.0 | 2.0 | 0.06 | 0.21 | 0.21 | 97 | 1011.7 |
| 20260506180500 | 49 | 152 | 0.0 | 2.0 | 0.06 | 0.21 | 0.21 | 97 | 1011.6 |
| 20260506180359 | 49 | 152 | 0.0 | 2.0 | 0.06 | 0.21 | 0.21 | 97 | 1011.7 |
| 20260506180259 | 49 | 155 | 0.0 | 2.0 | 0.06 | 0.21 | 0.21 | 97 | 1011.8 |
| 20260506180200 | 49 | 150 | 0.0 | 4.0 | 0.05 | 0.20 | 0.20 | 97 | 1011.6 |
| 20260506180100 | 49 | 145 | 0.0 | 4.0 | 0.05 | 0.20 | 0.20 | 97 | 1011.6 |
| 20260506180002 | 49 | 142 | 0.0 | 4.0 | 0.05 | 0.20 | 0.20 | 97 | 1011.6 |
| 20260506175900 | 49 | 139 | 0.0 | 4.0 | 0.05 | 0.20 | 0.20 | 97 | 1011.6 |
| 20260506175759 | 49 | 137 | 0.0 | 4.0 | 0.05 | 0.20 | 0.20 | 97 | 1011.5 |
| 20260506175659 | 50 | 135 | 0.0 | 4.0 | 0.05 | 0.20 | 0.20 | 97 | 1011.4 |
| 20260506175559 | 50 | 135 | 0.0 | 4.0 | 0.05 | 0.20 | 0.20 | 97 | 1011.7 |
| 20260506175400 | 50 | 135 | 0.0 | 4.0 | 0.05 | 0.20 | 0.20 | 97 | 1011.4 |
| 20260506175300 | 50 | 134 | 0.0 | 4.0 | 0.05 | 0.20 | 0.20 | 97 | 1011.5 |
| 20260506175159 | 50 | 133 | 2.0 | 4.0 | 0.05 | 0.20 | 0.20 | 96 | 1011.5 |
| 20260506175059 | 50 | 131 | 2.0 | 4.0 | 0.05 | 0.20 | 0.20 | 96 | 1011.2 |
| 20260506175000 | 50 | 130 | 2.0 | 4.0 | 0.05 | 0.20 | 0.20 | 96 | 1011.6 |
| 20260506174900 | 50 | 131 | 2.0 | 4.0 | 0.05 | 0.20 | 0.20 | 96 | 1011.6 |
| 20260506174759 | 50 | 133 | 2.0 | 4.0 | 0.05 | 0.20 | 0.20 | 96 | 1011.5 |
| 20260506174659 | 50 | 136 | 2.0 | 4.0 | 0.05 | 0.20 | 0.20 | 96 | 1011.7 |
| 20260506174559 | 50 | 139 | 1.0 | 2.0 | 0.05 | 0.20 | 0.20 | 96 | 1011.5 |
| 20260506174501 | 50 | 139 | 2.0 | 2.0 | 0.05 | 0.20 | 0.20 | 96 | 1011.5 |
| 20260506174359 | 50 | 144 | 0.0 | 4.0 | 0.04 | 0.19 | 0.19 | 96 | 1011.4 |
| 20260506174259 | 50 | 154 | 0.0 | 4.0 | 0.04 | 0.19 | 0.19 | 96 | 1011.3 |
| 20260506174200 | 50 | 161 | 0.0 | 4.0 | 0.05 | 0.19 | 0.19 | 96 | 1011.3 |
| 20260506174100 | 50 | 165 | 0.0 | 4.0 | 0.05 | 0.19 | 0.19 | 96 | 1011.3 |
| 20260506173959 | 50 | 167 | 0.0 | 4.0 | 0.06 | 0.19 | 0.19 | 96 | 1011.4 |
| 20260506173859 | 50 | 167 | 0.0 | 4.0 | 0.06 | 0.19 | 0.19 | 96 | 1011.6 |
| 20260506173800 | 50 | 163 | 0.0 | 4.0 | 0.06 | 0.19 | 0.19 | 96 | 1011.4 |
| 20260506173700 | 50 | 162 | 0.0 | 4.0 | 0.07 | 0.19 | 0.19 | 96 | 1011.5 |
| 20260506173559 | 50 | 158 | 0.0 | 4.0 | 0.07 | 0.19 | 0.19 | 96 | 1011.5 |
| 20260506173459 | 50 | 152 | 2.0 | 4.0 | 0.07 | 0.19 | 0.19 | 96 | 1011.6 |
| 20260506173359 | 50 | 146 | 2.0 | 4.0 | 0.08 | 0.19 | 0.19 | 96 | 1011.5 |
| 20260506173259 | 50 | 137 | 3.0 | 4.0 | 0.08 | 0.19 | 0.19 | 96 | 1011.3 |
| 20260506173201 | 50 | 122 | 2.0 | 4.0 | 0.07 | 0.18 | 0.18 | 96 | 1011.3 |
| 20260506173100 | 50 | 117 | 0.0 | 4.0 | 0.07 | 0.18 | 0.18 | 96 | 1011.5 |
| 20260506173001 | 50 | 115 | 0.0 | 4.0 | 0.07 | 0.18 | 0.18 | 96 | 1011.3 |
| 20260506172900 | 50 | 115 | 0.0 | 4.0 | 0.08 | 0.18 | 0.18 | 96 | 1011.4 |
| 20260506172759 | 50 | 115 | 2.0 | 4.0 | 0.08 | 0.18 | 0.18 | 96 | 1011.3 |
| 20260506172659 | 50 | 115 | 1.0 | 4.0 | 0.08 | 0.18 | 0.18 | 96 | 1011.3 |
| 20260506172459 | 50 | 118 | 1.0 | 4.0 | 0.08 | 0.18 | 0.18 | 96 | 1011.2 |
| 20260506172400 | 50 | 119 | 1.0 | 4.0 | 0.08 | 0.18 | 0.18 | 96 | 1011.3 |
| 20260506172200 | 50 | 129 | 1.0 | 4.0 | 0.08 | 0.18 | 0.18 | 96 | 1011.3 |
| 20260506172059 | 50 | 133 | 2.0 | 4.0 | 0.07 | 0.17 | 0.17 | 96 | 1011.3 |
| 20260506171959 | 50 | 144 | 0.0 | 4.0 | 0.07 | 0.17 | 0.17 | 96 | 1011.2 |
| 20260506171859 | 50 | 151 | 1.0 | 4.0 | 0.07 | 0.17 | 0.17 | 96 | 1011.2 |
| 20260506171800 | 50 | 156 | 1.0 | 4.0 | 0.07 | 0.17 | 0.17 | 96 | 1011.4 |
| 20260506171700 | 50 | 156 | 2.0 | 6.0 | 0.07 | 0.18 | 0.17 | 96 | 1011.1 |
| 20260506171559 | 51 | 154 | 0.0 | 6.0 | 0.07 | 0.18 | 0.17 | 96 | 1011.3 |
| 20260506171501 | 51 | 152 | 0.0 | 6.0 | 0.07 | 0.18 | 0.17 | 96 | 1011.2 |
| 20260506171359 | 50 | 152 | 0.0 | 6.0 | 0.07 | 0.18 | 0.17 | 96 | 1011.4 |
| 20260506171259 | 50 | 151 | 2.0 | 6.0 | 0.07 | 0.18 | 0.17 | 96 | 1011.3 |
| 20260506171059 | 51 | 157 | 2.0 | 6.0 | 0.07 | 0.20 | 0.17 | 96 | 1011.3 |
| 20260506171000 | 51 | 154 | 2.0 | 6.0 | 0.07 | 0.20 | 0.17 | 96 | 1011.3 |
| 20260506170900 | 51 | 149 | 2.0 | 6.0 | 0.07 | 0.20 | 0.17 | 96 | 1011.4 |
| 20260506170759 | 51 | 146 | 0.0 | 6.0 | 0.07 | 0.21 | 0.17 | 96 | 1011.2 |
| 20260506170559 | 51 | 148 | 0.0 | 6.0 | 0.06 | 0.20 | 0.15 | 96 | 1011.3 |
| 20260506170259 | 51 | 122 | 1.0 | 6.0 | 0.06 | 0.21 | 0.15 | 96 | 1011.4 |
| 20260506170159 | 51 | 115 | 1.0 | 6.0 | 0.06 | 0.21 | 0.15 | 96 | 1011.2 |
| 20260506170001 | 51 | 110 | 0.0 | 6.0 | 0.06 | 0.21 | 0.15 | 96 | 1011.1 |
| 20260506165859 | 51 | 113 | 0.0 | 6.0 | 0.06 | 0.22 | 0.15 | 96 | 1011.3 |
| 20260506165800 | 51 | 115 | 1.0 | 6.0 | 0.06 | 0.22 | 0.15 | 96 | 1011.4 |
| 20260506165700 | 51 | 113 | 3.0 | 6.0 | 0.06 | 0.24 | 0.15 | 96 | 1011.3 |
| 20260506165600 | 51 | 111 | 2.0 | 6.0 | 0.06 | 0.24 | 0.15 | 96 | 1011.2 |
| 20260506165459 | 51 | 114 | 2.0 | 6.0 | 0.06 | 0.24 | 0.15 | 96 | 1011.3 |
| 20260506165359 | 51 | 120 | 2.0 | 8.0 | 0.06 | 0.25 | 0.15 | 96 | 1011.2 |
| 20260506165259 | 51 | 128 | 2.0 | 8.0 | 0.06 | 0.26 | 0.15 | 96 | 1011.2 |
| 20260506165200 | 51 | 135 | 2.0 | 8.0 | 0.06 | 0.26 | 0.15 | 96 | 1011.1 |
| 20260506165100 | 51 | 137 | 0.0 | 8.0 | 0.06 | 0.26 | 0.15 | 96 | 1011.2 |
| 20260506164959 | 51 | 137 | 4.0 | 8.0 | 0.06 | 0.26 | 0.15 | 96 | 1011.3 |
| 20260506164859 | 51 | 138 | 4.0 | 8.0 | 0.06 | 0.26 | 0.15 | 96 | 1011.4 |
| 20260506164759 | 51 | 138 | 4.0 | 8.0 | 0.06 | 0.26 | 0.15 | 96 | 1011.3 |
| 20260506164559 | 51 | 139 | 4.0 | 8.0 | 0.06 | 0.26 | 0.15 | 96 | 1011.2 |
| 20260506164501 | 51 | 140 | 4.0 | 8.0 | 0.06 | 0.26 | 0.15 | 96 | 1011.2 |
| 20260506164359 | 51 | 143 | 4.0 | 8.0 | 0.06 | 0.26 | 0.15 | 95 | 1011.3 |
| 20260506164259 | 52 | 138 | 0.0 | 2.0 | 0.05 | 0.25 | 0.14 | 96 | 1011.2 |
| 20260506164200 | 52 | 140 | 1.0 | 2.0 | 0.05 | 0.25 | 0.14 | 95 | 1011.1 |
| 20260506164100 | 52 | 148 | 1.0 | 2.0 | 0.05 | 0.25 | 0.14 | 95 | 1011.2 |
| 20260506163959 | 52 | 150 | 1.0 | 2.0 | 0.04 | 0.24 | 0.13 | 95 | 1011.4 |
| 20260506163859 | 52 | 154 | 0.0 | 2.0 | 0.04 | 0.24 | 0.13 | 95 | 1011.3 |
| 20260506163700 | 52 | 190 | 0.0 | 2.0 | 0.02 | 0.22 | 0.12 | 95 | 1011.0 |
| 20260506163500 | 52 | 190 | 0.0 | 2.0 | 0.02 | 0.22 | 0.12 | 95 | 1011.1 |
| 20260506163359 | 52 | 190 | 0.0 | 2.0 | 0.01 | 0.21 | 0.11 | 95 | 1010.9 |
| 20260506163259 | 52 | 190 | 0.0 | 2.0 | 0.01 | 0.21 | 0.11 | 95 | 1011.1 |
| 20260506163159 | 52 | 204 | 1.0 | 2.0 | 0.01 | 0.21 | 0.11 | 95 | 1011.1 |
| 20260506163100 | 52 | 217 | 1.0 | 2.0 | 0.01 | 0.21 | 0.11 | 95 | 1011.2 |
| 20260506163001 | 52 | 221 | 0.0 | 2.0 | 0.00 | 0.20 | 0.09 | 95 | 1011.1 |
| 20260506162859 | 52 | 222 | 0.0 | 2.0 | 0.00 | 0.20 | 0.09 | 95 | 1011.2 |
| 20260506162759 | 52 | 224 | 0.0 | 2.0 | 0.00 | 0.20 | 0.09 | 95 | 1011.2 |
| 20260506162700 | 53 | 225 | 0.0 | 2.0 | 0.00 | 0.20 | 0.09 | 95 | 1011.0 |
| 20260506162600 | 52 | 225 | 0.0 | 2.0 | 0.00 | 0.20 | 0.09 | 95 | 1011.1 |
| 20260506162459 | 52 | 222 | 0.0 | 2.0 | 0.00 | 0.20 | 0.09 | 95 | 1011.1 |
| 20260506162359 | 52 | 221 | 0.0 | 2.0 | 0.00 | 0.20 | 0.09 | 95 | 1011.2 |
| 20260506162259 | 52 | 223 | 0.0 | 4.0 | 0.00 | 0.20 | 0.09 | 95 | 1011.0 |
| 20260506162200 | 52 | 231 | 1.0 | 4.0 | 0.00 | 0.20 | 0.09 | 95 | 1011.1 |
| 20260506162100 | 52 | 236 | 1.0 | 4.0 | 0.00 | 0.20 | 0.09 | 95 | 1011.0 |
| 20260506161859 | 52 | 243 | 1.0 | 4.0 | 0.00 | 0.20 | 0.09 | 95 | 1011.0 |
| 20260506161759 | 53 | 242 | 0.0 | 4.0 | 0.00 | 0.20 | 0.09 | 95 | 1010.9 |
| 20260506161659 | 52 | 240 | 0.0 | 4.0 | 0.00 | 0.20 | 0.09 | 95 | 1011.0 |
| 20260506161600 | 52 | 236 | 1.0 | 4.0 | 0.00 | 0.20 | 0.09 | 95 | 1010.8 |
| 20260506161501 | 53 | 237 | 0.0 | 4.0 | 0.00 | 0.20 | 0.09 | 95 | 1010.8 |
| 20260506161259 | 52 | 235 | 2.0 | 4.0 | 0.00 | 0.20 | 0.09 | 95 | 1010.9 |
| 20260506161200 | 52 | 232 | 2.0 | 4.0 | 0.00 | 0.20 | 0.09 | 95 | 1011.2 |
| 20260506161100 | 52 | 229 | 2.0 | 4.0 | 0.00 | 0.20 | 0.09 | 95 | 1011.1 |
| 20260506160959 | 52 | 225 | 2.0 | 4.0 | 0.00 | 0.20 | 0.09 | 95 | 1010.9 |
| 20260506160859 | 52 | 221 | 0.0 | 4.0 | 0.00 | 0.20 | 0.09 | 95 | 1011.1 |
| 20260506160759 | 52 | 220 | 0.0 | 4.0 | 0.00 | 0.20 | 0.09 | 95 | 1011.0 |
| 20260506160700 | 52 | 217 | 2.0 | 4.0 | 0.00 | 0.20 | 0.09 | 94 | 1011.2 |
| 20260506160459 | 52 | 219 | 2.0 | 4.0 | 0.00 | 0.20 | 0.09 | 94 | 1011.0 |
| 20260506160359 | 52 | 218 | 2.0 | 4.0 | 0.00 | 0.20 | 0.09 | 94 | 1011.1 |
| 20260506160300 | 52 | 217 | 0.0 | 2.0 | 0.00 | 0.20 | 0.09 | 94 | 1010.9 |
| 20260506160200 | 52 | 216 | 0.0 | 2.0 | 0.00 | 0.20 | 0.09 | 94 | 1010.9 |
| 20260506160100 | 52 | 215 | 0.0 | 2.0 | 0.00 | 0.20 | 0.09 | 94 | 1011.1 |
| 20260506160002 | 52 | 215 | 0.0 | 2.0 | 0.00 | 0.20 | 0.09 | 94 | 1011.0 |
| 20260506155700 | 53 | 217 | 0.0 | 2.0 | 0.00 | 0.20 | 0.09 | 94 | 1011.1 |
| 20260506155559 | 53 | 216 | 0.0 | 2.0 | 0.00 | 0.20 | 0.09 | 94 | 1011.0 |
| 20260506155459 | 53 | 220 | 0.0 | 2.0 | 0.00 | 0.20 | 0.09 | 94 | 1011.0 |
| 20260506155400 | 53 | 222 | 0.0 | 2.0 | 0.00 | 0.20 | 0.09 | 94 | 1010.9 |
| 20260506155200 | 52 | 222 | 0.0 | 2.0 | 0.00 | 0.20 | 0.09 | 94 | 1010.9 |
| 20260506155100 | 52 | 220 | 0.0 | 2.0 | 0.00 | 0.20 | 0.09 | 94 | 1010.8 |
| 20260506154959 | 52 | 220 | 1.0 | 2.0 | 0.00 | 0.20 | 0.09 | 94 | 1010.9 |
| 20260506154859 | 53 | 219 | 0.0 | 2.0 | 0.00 | 0.20 | 0.09 | 94 | 1010.9 |
| 20260506154800 | 52 | 220 | 0.0 | 2.0 | 0.00 | 0.20 | 0.09 | 94 | 1010.9 |
| 20260506154700 | 52 | 222 | 0.0 | 2.0 | 0.00 | 0.20 | 0.09 | 94 | 1010.7 |
| 20260506154600 | 53 | 225 | 1.0 | 2.0 | 0.00 | 0.20 | 0.09 | 94 | 1010.9 |
| 20260506154501 | 53 | 216 | 1.0 | 2.0 | 0.00 | 0.20 | 0.09 | 94 | 1010.9 |
| 20260506154400 | 53 | 208 | 0.0 | 2.0 | 0.00 | 0.20 | 0.09 | 94 | 1010.8 |
| 20260506154300 | 53 | 208 | 0.0 | 2.0 | 0.00 | 0.20 | 0.09 | 94 | 1011.0 |
| 20260506154200 | 53 | 207 | 0.0 | 2.0 | 0.00 | 0.20 | 0.09 | 93 | 1010.9 |
| 20260506154059 | 53 | 206 | 0.0 | 2.0 | 0.00 | 0.20 | 0.09 | 93 | 1010.7 |
| 20260506153959 | 53 | 203 | 0.0 | 4.0 | 0.00 | 0.20 | 0.09 | 93 | 1010.7 |
| 20260506153859 | 53 | 198 | 0.0 | 4.0 | 0.00 | 0.20 | 0.09 | 93 | 1010.9 |
| 20260506153800 | 53 | 196 | 0.0 | 4.0 | 0.00 | 0.20 | 0.09 | 93 | 1010.9 |
| 20260506153700 | 53 | 194 | 0.0 | 4.0 | 0.00 | 0.20 | 0.09 | 93 | 1011.0 |
| 20260506153559 | 53 | 193 | 0.0 | 4.0 | 0.00 | 0.20 | 0.09 | 93 | 1010.9 |
| 20260506153359 | 52 | 192 | 0.0 | 4.0 | 0.00 | 0.20 | 0.09 | 93 | 1010.8 |
| 20260506153300 | 52 | 191 | 0.0 | 4.0 | 0.00 | 0.20 | 0.09 | 93 | 1010.8 |
| 20260506153200 | 52 | 190 | 0.0 | 4.0 | 0.00 | 0.20 | 0.09 | 93 | 1010.7 |
| 20260506153059 | 52 | 189 | 1.0 | 4.0 | 0.00 | 0.20 | 0.09 | 93 | 1010.8 |
| 20260506152900 | 52 | 190 | 2.0 | 2.0 | 0.00 | 0.20 | 0.09 | 93 | 1010.9 |
| 20260506152759 | 52 | 194 | 0.0 | 2.0 | 0.00 | 0.20 | 0.09 | 93 | 1010.9 |
| 20260506152659 | 52 | 200 | 1.0 | 2.0 | 0.00 | 0.20 | 0.09 | 93 | 1010.8 |
| 20260506152600 | 53 | 203 | 0.0 | 2.0 | 0.00 | 0.20 | 0.09 | 93 | 1010.7 |
| 20260506152500 | 53 | 195 | 0.0 | 2.0 | 0.00 | 0.20 | 0.09 | 93 | 1010.6 |
| 20260506152400 | 52 | 197 | 0.0 | 2.0 | 0.00 | 0.20 | 0.09 | 93 | 1010.7 |
| 20260506152159 | 52 | 200 | 0.0 | 2.0 | 0.00 | 0.20 | 0.09 | 93 | 1010.8 |
| 20260506151900 | 53 | 185 | 0.0 | 4.0 | 0.00 | 0.20 | 0.09 | 93 | 1010.9 |
| 20260506151800 | 53 | 195 | 0.0 | 4.0 | 0.01 | 0.20 | 0.09 | 93 | 1011.0 |
| 20260506151700 | 53 | 204 | 0.0 | 4.0 | 0.01 | 0.20 | 0.09 | 93 | 1010.8 |
| 20260506151600 | 53 | 208 | 0.0 | 4.0 | 0.01 | 0.20 | 0.09 | 93 | 1010.8 |
| 20260506151501 | 53 | 212 | 0.0 | 4.0 | 0.01 | 0.20 | 0.09 | 93 | 1010.8 |
| 20260506151359 | 52 | 212 | 0.0 | 4.0 | 0.01 | 0.20 | 0.09 | 93 | 1010.8 |
| 20260506151259 | 52 | 211 | 0.0 | 4.0 | 0.01 | 0.20 | 0.09 | 93 | 1010.9 |
| 20260506151200 | 52 | 211 | 0.0 | 4.0 | 0.01 | 0.20 | 0.09 | 93 | 1010.9 |
| 20260506151000 | 52 | 212 | 0.0 | 4.0 | 0.01 | 0.20 | 0.09 | 93 | 1010.8 |
| 20260506150900 | 52 | 212 | 2.0 | 4.0 | 0.01 | 0.20 | 0.09 | 93 | 1010.9 |
| 20260506150759 | 52 | 214 | 2.0 | 4.0 | 0.01 | 0.20 | 0.09 | 93 | 1010.9 |
| 20260506150659 | 52 | 211 | 1.0 | 4.0 | 0.01 | 0.20 | 0.09 | 93 | 1010.8 |
| 20260506150559 | 52 | 207 | 2.0 | 4.0 | 0.01 | 0.20 | 0.09 | 93 | 1010.8 |
| 20260506150459 | 52 | 203 | 1.0 | 4.0 | 0.01 | 0.20 | 0.09 | 93 | 1010.7 |
| 20260506150400 | 52 | 200 | 0.0 | 4.0 | 0.01 | 0.20 | 0.09 | 93 | 1011.0 |
| 20260506150304 | 52 | 198 | 0.0 | 4.0 | 0.01 | 0.20 | 0.09 | 93 | 1010.7 |
| 20260506150200 | 53 | 195 | 0.0 | 4.0 | 0.01 | 0.20 | 0.09 | 93 | 1010.7 |
| 20260506150059 | 53 | 193 | 0.0 | 4.0 | 0.01 | 0.20 | 0.09 | 93 | 1010.9 |
| 20260506150001 | 52 | 192 | 0.0 | 4.0 | 0.01 | 0.20 | 0.09 | 93 | 1010.6 |
| 20260506145859 | 52 | 190 | 1.0 | 4.0 | 0.01 | 0.20 | 0.09 | 93 | 1010.5 |
| 20260506145700 | 52 | 193 | 0.0 | 4.0 | 0.01 | 0.20 | 0.09 | 93 | 1010.8 |
| 20260506145559 | 52 | 193 | 1.0 | 4.0 | 0.01 | 0.20 | 0.09 | 93 | 1010.7 |
| 20260506145500 | 52 | 194 | 0.0 | 4.0 | 0.01 | 0.20 | 0.09 | 93 | 1010.6 |
| 20260506145400 | 52 | 196 | 0.0 | 4.0 | 0.01 | 0.20 | 0.09 | 93 | 1010.8 |
| 20260506145200 | 52 | 199 | 0.0 | 4.0 | 0.01 | 0.20 | 0.09 | 93 | 1010.4 |
| 20260506144959 | 52 | 185 | 0.0 | 6.0 | 0.01 | 0.20 | 0.09 | 92 | 1010.4 |
| 20260506144900 | 52 | 186 | 0.0 | 6.0 | 0.01 | 0.20 | 0.09 | 93 | 1010.5 |
| 20260506144800 | 52 | 184 | 1.0 | 6.0 | 0.01 | 0.20 | 0.09 | 93 | 1010.7 |
| 20260506144700 | 52 | 184 | 1.0 | 6.0 | 0.01 | 0.20 | 0.09 | 93 | 1010.4 |
| 20260506144559 | 52 | 185 | 1.0 | 6.0 | 0.01 | 0.20 | 0.09 | 93 | 1010.5 |
| 20260506144501 | 52 | 186 | 1.0 | 6.0 | 0.01 | 0.20 | 0.09 | 93 | 1010.8 |
| 20260506144300 | 52 | 188 | 1.0 | 6.0 | 0.02 | 0.20 | 0.09 | 93 | 1010.6 |
| 20260506144100 | 52 | 203 | 2.0 | 6.0 | 0.02 | 0.20 | 0.09 | 93 | 1010.6 |
| 20260506143959 | 52 | 214 | 2.0 | 4.0 | 0.02 | 0.20 | 0.09 | 93 | 1010.7 |
| 20260506143659 | 52 | 223 | 1.0 | 4.0 | 0.02 | 0.20 | 0.09 | 93 | 1010.7 |
| 20260506143559 | 52 | 223 | 1.0 | 4.0 | 0.02 | 0.20 | 0.09 | 93 | 1010.6 |
| 20260506143400 | 52 | 217 | 2.0 | 4.0 | 0.02 | 0.20 | 0.09 | 93 | 1010.5 |
| 20260506143259 | 52 | 218 | 2.0 | 4.0 | 0.02 | 0.20 | 0.09 | 93 | 1010.7 |
| 20260506143159 | 52 | 224 | 2.0 | 4.0 | 0.02 | 0.20 | 0.09 | 93 | 1010.5 |
| 20260506143100 | 52 | 230 | 2.0 | 4.0 | 0.02 | 0.20 | 0.09 | 93 | 1010.3 |
| 20260506143001 | 53 | 234 | 1.0 | 4.0 | 0.02 | 0.20 | 0.09 | 94 | 1010.3 |
| 20260506142900 | 53 | 238 | 0.0 | 4.0 | 0.02 | 0.20 | 0.09 | 93 | 1010.3 |
| 20260506142800 | 53 | 240 | 0.0 | 4.0 | 0.02 | 0.20 | 0.09 | 94 | 1010.4 |
| 20260506142700 | 53 | 234 | 0.0 | 7.0 | 0.02 | 0.20 | 0.09 | 93 | 1010.5 |
| 20260506142459 | 52 | 232 | 1.0 | 7.0 | 0.02 | 0.20 | 0.09 | 93 | 1010.3 |
| 20260506142359 | 52 | 229 | 1.0 | 7.0 | 0.02 | 0.20 | 0.09 | 93 | 1010.3 |
| 20260506142300 | 52 | 228 | 2.0 | 7.0 | 0.02 | 0.20 | 0.09 | 93 | 1010.4 |
| 20260506142200 | 52 | 227 | 2.0 | 7.0 | 0.02 | 0.20 | 0.09 | 93 | 1010.3 |
| 20260506142100 | 52 | 225 | 1.0 | 7.0 | 0.02 | 0.20 | 0.09 | 93 | 1010.3 |
| 20260506141859 | 52 | 222 | 2.0 | 7.0 | 0.01 | 0.19 | 0.08 | 93 | 1010.3 |
| 20260506141759 | 52 | 219 | 2.0 | 7.0 | 0.02 | 0.19 | 0.08 | 93 | 1010.4 |
| 20260506141700 | 53 | 220 | 0.0 | 4.0 | 0.02 | 0.19 | 0.08 | 93 | 1010.3 |
| 20260506141600 | 52 | 222 | 0.0 | 4.0 | 0.04 | 0.19 | 0.08 | 93 | 1010.3 |
| 20260506141502 | 52 | 219 | 1.0 | 4.0 | 0.04 | 0.19 | 0.08 | 93 | 1010.3 |
| 20260506141300 | 52 | 219 | 1.0 | 4.0 | 0.05 | 0.19 | 0.08 | 93 | 1010.4 |
| 20260506141200 | 52 | 220 | 0.0 | 4.0 | 0.06 | 0.19 | 0.08 | 93 | 1010.3 |
| 20260506141059 | 52 | 220 | 3.0 | 4.0 | 0.06 | 0.19 | 0.08 | 93 | 1010.5 |
| 20260506140959 | 52 | 222 | 3.0 | 4.0 | 0.06 | 0.19 | 0.08 | 93 | 1010.4 |
| 20260506140800 | 52 | 217 | 3.0 | 7.0 | 0.06 | 0.19 | 0.08 | 93 | 1010.3 |
| 20260506140700 | 52 | 217 | 1.0 | 7.0 | 0.06 | 0.19 | 0.08 | 93 | 1010.4 |
| 20260506140559 | 52 | 218 | 1.0 | 7.0 | 0.07 | 0.19 | 0.08 | 93 | 1010.4 |
| 20260506140459 | 52 | 217 | 2.0 | 7.0 | 0.07 | 0.19 | 0.08 | 93 | 1010.3 |
| 20260506140400 | 52 | 222 | 2.0 | 8.0 | 0.07 | 0.19 | 0.08 | 93 | 1010.5 |
| 20260506140300 | 52 | 223 | 2.0 | 8.0 | 0.07 | 0.19 | 0.08 | 93 | 1010.3 |
| 20260506140200 | 52 | 221 | 1.0 | 8.0 | 0.07 | 0.20 | 0.08 | 93 | 1010.3 |